Observation data for Earth on 11/14/2019      Previous  Date  Next       Current Mesonet Observations  Soil Data  Daily Summary Page  Observations in Plain Language
KEA1 140600Z 35007KT 02/M05 A3013 RMK A01 T00151054  RH  060%=      5-min Rain = 0
KEA1 140601Z 35007KT 02/M05 A3013 RMK A01 T00151053  RH  061%=      5-min Rain = 0
KEA1 140602Z 34007KT 02/M05 A3013 RMK A01 T00151053  RH  061%=      5-min Rain = 0
KEA1 140603Z 34007KT 02/M05 A3013 RMK A01 T00151053  RH  061%=      5-min Rain = 0
KEA1 140604Z 35007KT 02/M05 A3013 RMK A01 T00151053  RH  060%=      5-min Rain = 0
KEA1 140605Z 35007KT 02/M05 A3014 RMK A01 T00151054  RH  060%=      5-min Rain = 0
KEA1 140606Z 35008KT 02/M05 A3014 RMK A01 T00151054  RH  060%=      5-min Rain = 0
KEA1 140607Z 35007KT 02/M05 A3014 RMK A01 T00151054  RH  060%=      5-min Rain = 0
KEA1 140608Z 35007KT 01/M05 A3014 RMK A01 T00141054  RH  060%=      5-min Rain = 0
KEA1 140609Z 35008KT 01/M06 A3014 RMK A01 T00131055  RH  061%=      5-min Rain = 0
KEA1 140610Z 35007KT 01/M05 A3014 RMK A01 T00131054  RH  061%=      5-min Rain = 0
KEA1 140611Z 35007KT 01/M06 A3014 RMK A01 T00121055  RH  061%=      5-min Rain = 0
KEA1 140612Z 35008KT 01/M06 A3014 RMK A01 T00111055  RH  061%=      5-min Rain = 0
KEA1 140613Z 36008KT 01/M05 A3014 RMK A01 T00121054  RH  062%=      5-min Rain = 0
KEA1 140614Z 35008KT 01/M05 A3014 RMK A01 T00111054  RH  062%=      5-min Rain = 0
KEA1 140615Z 35008KT 01/M05 A3014 RMK A01 T00101054  RH  062%=      5-min Rain = 0
KEA1 140616Z 35008KT 01/M05 A3014 RMK A01 T00101054  RH  062%=      5-min Rain = 0
KEA1 140617Z 35008KT 01/M06 A3014 RMK A01 T00091055  RH  062%=      5-min Rain = 0
KEA1 140618Z 35008KT 01/M05 A3014 RMK A01 T00101054  RH  062%=      5-min Rain = 0
KEA1 140619Z 35008KT 01/M05 A3014 RMK A01 T00101054  RH  062%=      5-min Rain = 0
KEA1 140620Z 35007KT 01/M05 A3014 RMK A01 T00101053  RH  062%=      5-min Rain = 0
KEA1 140621Z 35007KT 01/M05 A3014 RMK A01 T00121053  RH  062%=      5-min Rain = 0
KEA1 140622Z 35007KT 01/M05 A3014 RMK A01 T00121053  RH  062%=      5-min Rain = 0
KEA1 140623Z 35007KT 01/M05 A3014 RMK A01 T00131053  RH  062%=      5-min Rain = 0
KEA1 140624Z 35007KT 01/M05 A3014 RMK A01 T00131054  RH  061%=      5-min Rain = 0
KEA1 140625Z 35007KT 01/M05 A3014 RMK A01 T00131054  RH  061%=      5-min Rain = 0
KEA1 140626Z 35007KT 01/M05 A3014 RMK A01 T00121054  RH  061%=      5-min Rain = 0
KEA1 140627Z 35007KT 01/M05 A3014 RMK A01 T00121054  RH  061%=      5-min Rain = 0
KEA1 140628Z 35007KT 01/M06 A3014 RMK A01 T00111055  RH  061%=      5-min Rain = 0
KEA1 140629Z 36007KT 01/M05 A3014 RMK A01 T00111054  RH  062%=      5-min Rain = 0
KEA1 140630Z 36007KT 01/M06 A3014 RMK A01 T00111055  RH  062%=      5-min Rain = 0
KEA1 140631Z 36007KT 01/M06 A3014 RMK A01 T00101055  RH  062%=      5-min Rain = 0
KEA1 140632Z 36008KT 01/M06 A3014 RMK A01 T00101055  RH  062%=      5-min Rain = 0
KEA1 140633Z 36008KT 01/M06 A3014 RMK A01 T00101055  RH  062%=      5-min Rain = 0
KEA1 140634Z 36008KT 01/M06 A3014 RMK A01 T00111055  RH  062%=      5-min Rain = 0
KEA1 140635Z 36008KT 01/M05 A3014 RMK A01 T00101054  RH  062%=      5-min Rain = 0
KEA1 140636Z 36008KT 01/M06 A3014 RMK A01 T00091055  RH  062%=      5-min Rain = 0
KEA1 140637Z 36008KT 01/M05 A3014 RMK A01 T00091054  RH  062%=      5-min Rain = 0
KEA1 140638Z 00007KT 01/M06 A3014 RMK A01 T00081055  RH  063%=      5-min Rain = 0
KEA1 140639Z 35007KT 01/M05 A3014 RMK A01 T00081054  RH  063%=      5-min Rain = 0
KEA1 140640Z 35006KT 01/M05 A3014 RMK A01 T00081054  RH  063%=      5-min Rain = 0
KEA1 140641Z 35006KT 01/M05 A3014 RMK A01 T00091053  RH  063%=      5-min Rain = 0
KEA1 140642Z 35006KT 01/M05 A3015 RMK A01 T00111053  RH  062%=      5-min Rain = 0
KEA1 140643Z 35006KT 01/M05 A3015 RMK A01 T00121053  RH  062%=      5-min Rain = 0
KEA1 140644Z 35005KT 01/M05 A3015 RMK A01 T00131053  RH  062%=      5-min Rain = 0
KEA1 140645Z 34005KT 01/M05 A3015 RMK A01 T00131053  RH  061%=      5-min Rain = 0
KEA1 140646Z 34005KT 01/M05 A3015 RMK A01 T00141053  RH  061%=      5-min Rain = 0
KEA1 140647Z 34004KT 01/M05 A3015 RMK A01 T00141053  RH  061%=      5-min Rain = 0
KEA1 140648Z 34004KT 02/M05 A3015 RMK A01 T00151053  RH  061%=      5-min Rain = 0
KEA1 140649Z 34005KT 02/M05 A3015 RMK A01 T00161053  RH  060%=      5-min Rain = 0
KEA1 140650Z 35005KT 02/M05 A3015 RMK A01 T00171053  RH  060%=      5-min Rain = 0
KEA1 140651Z 34005KT 02/M05 A3015 RMK A01 T00171053  RH  060%=      5-min Rain = 0
KEA1 140652Z 35005KT 02/M05 A3015 RMK A01 T00171054  RH  059%=      5-min Rain = 0
KEA1 140653Z 35005KT 02/M05 A3015 RMK A01 T00171053  RH  059%=      5-min Rain = 0
KEA1 140654Z 36006KT 02/M05 A3015 RMK A01 T00171054  RH  059%=      5-min Rain = 0
KEA1 140655Z 36005KT 02/M05 A3015 RMK A01 T00181053  RH  059%=      5-min Rain = 0
KEA1 140656Z 36006KT 02/M05 A3015 RMK A01 T00171054  RH  059%=      5-min Rain = 0
KEA1 140657Z 36006KT 02/M05 A3015 RMK A01 T00171054  RH  059%=      5-min Rain = 0
KEA1 140658Z 00006KT 02/M05 A3015 RMK A01 T00171054  RH  059%=      5-min Rain = 0
KEA1 140659Z 00006KT 02/M05 A3015 RMK A01 T00171054  RH  059%=      5-min Rain = 0
KEA1 140700Z 00006KT 02/M05 A3015 RMK A01 T00171054  RH  059%=      5-min Rain = 0
KEA1 140701Z 00006KT 02/M05 A3015 RMK A01 T00171054  RH  059%=      5-min Rain = 0
KEA1 140702Z 00006KT 02/M06 A3015 RMK A01 T00171055  RH  059%=      5-min Rain = 0
KEA1 140703Z 01006KT 02/M06 A3015 RMK A01 T00161055  RH  059%=      5-min Rain = 0
KEA1 140704Z 01006KT 02/M06 A3015 RMK A01 T00161055  RH  059%=      5-min Rain = 0
KEA1 140705Z 00006KT 02/M06 A3015 RMK A01 T00151055  RH  059%=      5-min Rain = 0
KEA1 140706Z 01005KT 02/M06 A3015 RMK A01 T00151055  RH  060%=      5-min Rain = 0
KEA1 140707Z 01005KT 02/M06 A3015 RMK A01 T00151055  RH  060%=      5-min Rain = 0
KEA1 140708Z 00006KT 02/M05 A3015 RMK A01 T00161054  RH  060%=      5-min Rain = 0
KEA1 140709Z 00006KT 02/M05 A3015 RMK A01 T00171054  RH  059%=      5-min Rain = 0
KEA1 140710Z 00006KT 02/M05 A3015 RMK A01 T00171054  RH  059%=      5-min Rain = 0
KEA1 140711Z 00006KT 02/M05 A3015 RMK A01 T00171054  RH  059%=      5-min Rain = 0
KEA1 140712Z 00007KT 02/M06 A3015 RMK A01 T00161055  RH  059%=      5-min Rain = 0
KEA1 140713Z 36007KT 02/M06 A3015 RMK A01 T00161055  RH  059%=      5-min Rain = 0
KEA1 140714Z 36007KT 02/M06 A3015 RMK A01 T00151056  RH  059%=      5-min Rain = 0
KEA1 140715Z 36006KT 01/M06 A3015 RMK A01 T00141056  RH  060%=      5-min Rain = 0
KEA1 140716Z 35006KT 01/M06 A3015 RMK A01 T00131056  RH  060%=      5-min Rain = 0
KEA1 140717Z 35006KT 01/M06 A3015 RMK A01 T00121056  RH  060%=      5-min Rain = 0
KEA1 140718Z 35006KT 01/M06 A3015 RMK A01 T00121056  RH  061%=      5-min Rain = 0
KEA1 140719Z 34006KT 01/M06 A3015 RMK A01 T00121056  RH  061%=      5-min Rain = 0
KEA1 140720Z 34006KT 01/M06 A3015 RMK A01 T00111057  RH  061%=      5-min Rain = 0
KEA1 140721Z 34006KT 01/M06 A3015 RMK A01 T00101057  RH  061%=      5-min Rain = 0
KEA1 140722Z 34006KT 01/M06 A3015 RMK A01 T00091057  RH  061%=      5-min Rain = 0
KEA1 140723Z 34006KT 01/M06 A3015 RMK A01 T00091058  RH  061%=      5-min Rain = 0
KEA1 140724Z 33006KT 01/M06 A3015 RMK A01 T00081058  RH  061%=      5-min Rain = 0
KEA1 140725Z 33006KT 01/M06 A3015 RMK A01 T00091057  RH  061%=      5-min Rain = 0
KEA1 140726Z 33005KT 01/M06 A3015 RMK A01 T00071059  RH  061%=      5-min Rain = 0
KEA1 140727Z 32005KT 01/M06 A3015 RMK A01 T00071058  RH  062%=      5-min Rain = 0
KEA1 140728Z 33005KT 01/M06 A3015 RMK A01 T00071058  RH  062%=      5-min Rain = 0
KEA1 140729Z 33006KT 01/M06 A3015 RMK A01 T00071058  RH  062%=      5-min Rain = 0
KEA1 140730Z 33006KT 01/M06 A3016 RMK A01 T00071058  RH  062%=      5-min Rain = 0
KEA1 140731Z 33006KT 01/M06 A3016 RMK A01 T00071058  RH  062%=      5-min Rain = 0
KEA1 140732Z 33006KT 01/M06 A3016 RMK A01 T00071058  RH  062%=      5-min Rain = 0
KEA1 140733Z 33007KT 01/M06 A3016 RMK A01 T00071058  RH  062%=      5-min Rain = 0
KEA1 140734Z 33007KT 01/M06 A3016 RMK A01 T00061059  RH  062%=      5-min Rain = 0
KEA1 140735Z 33007KT 01/M06 A3016 RMK A01 T00051059  RH  062%=      5-min Rain = 0
KEA1 140736Z 33007KT 00/M06 A3016 RMK A01 T00041059  RH  063%=      5-min Rain = 0
KEA1 140737Z 33007KT 00/M06 A3016 RMK A01 T00021059  RH  063%=      5-min Rain = 0
KEA1 140738Z 33007KT 00/M06 A3016 RMK A01 T00021059  RH  064%=      5-min Rain = 0
KEA1 140739Z 32007KT 00/M06 A3016 RMK A01 T00011059  RH  064%=      5-min Rain = 0
KEA1 140740Z 32006KT 00/M06 A3016 RMK A01 T00011059  RH  064%=      5-min Rain = 0
KEA1 140741Z 32007KT 00/06 A3016 RMK A01 T00-00-59  RH  065%=      5-min Rain = 0
KEA1 140742Z 32007KT M00/M06 A3016 RMK A01 T10011059  RH  065%=      5-min Rain = 0
KEA1 140743Z 32007KT M00/M06 A3016 RMK A01 T10011059  RH  065%=      5-min Rain = 0
KEA1 140744Z 32007KT 00/06 A3016 RMK A01 T00000-58  RH  065%=      5-min Rain = 0
KEA1 140745Z 32007KT 00/M06 A3016 RMK A01 T00011058  RH  065%=      5-min Rain = 0
KEA1 140746Z 32007KT 00/06 A3016 RMK A01 T00000-58  RH  065%=      5-min Rain = 0
KEA1 140747Z 32007KT 00/06 A3016 RMK A01 T00000-58  RH  065%=      5-min Rain = 0
KEA1 140748Z 32007KT 00/06 A3016 RMK A01 T00000-58  RH  065%=      5-min Rain = 0
KEA1 140749Z 32007KT 00/06 A3016 RMK A01 T00000-58  RH  065%=      5-min Rain = 0
KEA1 140750Z 32007KT 00/06 A3016 RMK A01 T00000-58  RH  065%=      5-min Rain = 0
KEA1 140751Z 32007KT M00/M06 A3016 RMK A01 T10011058  RH  065%=      5-min Rain = 0
KEA1 140752Z 33008KT M00/M06 A3016 RMK A01 T10011058  RH  065%=      5-min Rain = 0
KEA1 140753Z 33008KT M00/M06 A3016 RMK A01 T10011058  RH  065%=      5-min Rain = 0
KEA1 140754Z 33008KT M00/M06 A3016 RMK A01 T10011059  RH  065%=      5-min Rain = 0
KEA1 140755Z 33008KT M00/M06 A3017 RMK A01 T10011058  RH  065%=      5-min Rain = 0
KEA1 140756Z 33008KT 00/06 A3017 RMK A01 T00000-58  RH  065%=      5-min Rain = 0
KEA1 140757Z 33009KT 00/M06 A3017 RMK A01 T00011058  RH  065%=      5-min Rain = 0
KEA1 140758Z 33008KT 00/M06 A3017 RMK A01 T00011058  RH  065%=      5-min Rain = 0
KEA1 140759Z 34008KT 00/M06 A3017 RMK A01 T00011058  RH  065%=      5-min Rain = 0
KEA1 140800Z 34008KT 00/06 A3017 RMK A01 T00-00-59  RH  065%=      5-min Rain = 0
KEA1 140801Z 34008KT M00/M06 A3017 RMK A01 T10011059  RH  065%=      5-min Rain = 0
KEA1 140802Z 34008KT 00/06 A3017 RMK A01 T00-00-58  RH  065%=      5-min Rain = 0
KEA1 140803Z 34007KT 00/06 A3017 RMK A01 T00-00-58  RH  065%=      5-min Rain = 0
KEA1 140804Z 34007KT 00/06 A3017 RMK A01 T00-00-58  RH  065%=      5-min Rain = 0
KEA1 140805Z 34007KT 00/06 A3017 RMK A01 T00-00-58  RH  065%=      5-min Rain = 0
KEA1 140806Z 34007KT 00/06 A3017 RMK A01 T00-00-58  RH  065%=      5-min Rain = 0
KEA1 140807Z 34007KT 00/06 A3017 RMK A01 T00-00-58  RH  065%=      5-min Rain = 0
KEA1 140808Z 34006KT 00/06 A3017 RMK A01 T00-00-58  RH  065%=      5-min Rain = 0
KEA1 140809Z 35006KT 00/06 A3018 RMK A01 T00-00-58  RH  065%=      5-min Rain = 0
KEA1 140810Z 35006KT 00/06 A3018 RMK A01 T00-00-58  RH  065%=      5-min Rain = 0
KEA1 140811Z 34006KT M00/M06 A3018 RMK A01 T10011059  RH  065%=      5-min Rain = 0
KEA1 140812Z 35006KT 00/06 A3018 RMK A01 T00-00-58  RH  065%=      5-min Rain = 0
KEA1 140813Z 35006KT M00/M06 A3018 RMK A01 T10011059  RH  065%=      5-min Rain = 0
KEA1 140814Z 35005KT M00/M06 A3018 RMK A01 T10011058  RH  065%=      5-min Rain = 0
KEA1 140815Z 35005KT M00/M06 A3018 RMK A01 T10011059  RH  065%=      5-min Rain = 0
KEA1 140816Z 35005KT M00/M06 A3018 RMK A01 T10011058  RH  065%=      5-min Rain = 0
KEA1 140817Z 35005KT M00/M06 A3018 RMK A01 T10011058  RH  065%=      5-min Rain = 0
KEA1 140818Z 35005KT M00/M06 A3018 RMK A01 T10011058  RH  065%=      5-min Rain = 0
KEA1 140819Z 35005KT M00/M06 A3018 RMK A01 T10011058  RH  065%=      5-min Rain = 0
KEA1 140820Z 36006KT 00/06 A3018 RMK A01 T00-00-58  RH  065%=      5-min Rain = 0
KEA1 140821Z 35006KT 00/06 A3018 RMK A01 T00000-58  RH  065%=      5-min Rain = 0
KEA1 140822Z 35006KT 00/06 A3018 RMK A01 T00000-58  RH  065%=      5-min Rain = 0
KEA1 140823Z 35006KT 00/06 A3018 RMK A01 T00000-59  RH  064%=      5-min Rain = 0
KEA1 140824Z 35006KT 00/06 A3018 RMK A01 T00-00-59  RH  064%=      5-min Rain = 0
KEA1 140825Z 35007KT M00/M06 A3018 RMK A01 T10011059  RH  065%=      5-min Rain = 0
KEA1 140826Z 35007KT M00/M06 A3019 RMK A01 T10011059  RH  065%=      5-min Rain = 0
KEA1 140827Z 35007KT M00/M06 A3019 RMK A01 T10011059  RH  065%=      5-min Rain = 0
KEA1 140828Z 35007KT M00/M06 A3019 RMK A01 T10021059  RH  065%=      5-min Rain = 0
KEA1 140829Z 35007KT M00/M06 A3019 RMK A01 T10021059  RH  066%=      5-min Rain = 0
KEA1 140830Z 36007KT M00/M06 A3019 RMK A01 T10021058  RH  066%=      5-min Rain = 0
KEA1 140831Z 00007KT M00/M06 A3019 RMK A01 T10021059  RH  066%=      5-min Rain = 0
KEA1 140832Z 36007KT M00/M06 A3019 RMK A01 T10021058  RH  066%=      5-min Rain = 0
KEA1 140833Z 00007KT M00/M06 A3019 RMK A01 T10021058  RH  066%=      5-min Rain = 0
KEA1 140834Z 00007KT M00/M06 A3019 RMK A01 T10031059  RH  066%=      5-min Rain = 0
KEA1 140835Z 00008KT M00/M06 A3019 RMK A01 T10031059  RH  066%=      5-min Rain = 0
KEA1 140836Z 00008KT M00/M06 A3019 RMK A01 T10041058  RH  066%=      5-min Rain = 0
KEA1 140837Z 00008KT M00/M06 A3019 RMK A01 T10041059  RH  067%=      5-min Rain = 0
KEA1 140838Z 00008KT M00/M06 A3019 RMK A01 T10041059  RH  067%=      5-min Rain = 0
KEA1 140839Z 36008KT M01/M06 A3019 RMK A01 T10051059  RH  067%=      5-min Rain = 0
KEA1 140840Z 36008KT M01/M06 A3019 RMK A01 T10051058  RH  067%=      5-min Rain = 0
KEA1 140841Z 36008KT M01/M06 A3019 RMK A01 T10051058  RH  067%=      5-min Rain = 0
KEA1 140842Z 35008KT M01/M06 A3019 RMK A01 T10061059  RH  067%=      5-min Rain = 0
KEA1 140843Z 35007KT M01/M06 A3019 RMK A01 T10061059  RH  067%=      5-min Rain = 0
KEA1 140844Z 35007KT M01/M06 A3019 RMK A01 T10061059  RH  067%=      5-min Rain = 0
KEA1 140845Z 36007KT M01/M06 A3019 RMK A01 T10051058  RH  067%=      5-min Rain = 0
KEA1 140846Z 36008KT M01/M06 A3019 RMK A01 T10051058  RH  067%=      5-min Rain = 0
KEA1 140847Z 00007KT M01/M06 A3019 RMK A01 T10051059  RH  067%=      5-min Rain = 0
KEA1 140848Z 00007KT M01/M06 A3019 RMK A01 T10051058  RH  067%=      5-min Rain = 0
KEA1 140849Z 36007KT M01/M06 A3019 RMK A01 T10051058  RH  067%=      5-min Rain = 0
KEA1 140850Z 00007KT M00/M06 A3019 RMK A01 T10041058  RH  067%=      5-min Rain = 0
KEA1 140851Z 01007KT M00/M06 A3019 RMK A01 T10041058  RH  067%=      5-min Rain = 0
KEA1 140852Z 01007KT M00/M06 A3019 RMK A01 T10031058  RH  067%=      5-min Rain = 0
KEA1 140853Z 01007KT M00/M06 A3019 RMK A01 T10021057  RH  066%=      5-min Rain = 0
KEA1 140854Z 01007KT M00/M06 A3019 RMK A01 T10021057  RH  066%=      5-min Rain = 0
KEA1 140855Z 01007KT M00/M06 A3019 RMK A01 T10011057  RH  066%=      5-min Rain = 0
KEA1 140856Z 01007KT 00/06 A3019 RMK A01 T00-00-58  RH  065%=      5-min Rain = 0
KEA1 140857Z 01007KT M00/M06 A3019 RMK A01 T10011058  RH  065%=      5-min Rain = 0
KEA1 140858Z 01007KT 00/06 A3019 RMK A01 T00-00-58  RH  065%=      5-min Rain = 0
KEA1 140859Z 01007KT 00/06 A302 RMK A01 T00-00-58  RH  065%=      5-min Rain = 0
KEA1 140900Z 01006KT 00/06 A302 RMK A01 T00000-58  RH  065%=      5-min Rain = 0
KEA1 140901Z 01006KT 00/06 A302 RMK A01 T00000-58  RH  065%=      5-min Rain = 0
KEA1 140902Z 01006KT 00/06 A302 RMK A01 T00000-59  RH  065%=      5-min Rain = 0
KEA1 140903Z 01006KT 00/06 A302 RMK A01 T00-00-58  RH  065%=      5-min Rain = 0
KEA1 140904Z 01006KT 00/06 A302 RMK A01 T00-00-59  RH  065%=      5-min Rain = 0
KEA1 140905Z 01006KT 00/06 A302 RMK A01 T00000-59  RH  065%=      5-min Rain = 0
KEA1 140906Z 01006KT 00/M06 A302 RMK A01 T00011057  RH  065%=      5-min Rain = 0
KEA1 140907Z 01006KT 00/M06 A302 RMK A01 T00021058  RH  064%=      5-min Rain = 0
KEA1 140908Z 01006KT 00/M06 A302 RMK A01 T00031058  RH  064%=      5-min Rain = 0
KEA1 140909Z 01006KT 00/M06 A302 RMK A01 T00021058  RH  064%=      5-min Rain = 0
KEA1 140910Z 01006KT 00/M06 A302 RMK A01 T00031058  RH  064%=      5-min Rain = 0
KEA1 140911Z 00007KT 00/M06 A302 RMK A01 T00041058  RH  063%=      5-min Rain = 0
KEA1 140912Z 01006KT 00/M06 A302 RMK A01 T00041058  RH  063%=      5-min Rain = 0
KEA1 140913Z 01006KT 00/M06 A302 RMK A01 T00031059  RH  063%=      5-min Rain = 0
KEA1 140914Z 01006KT 00/M06 A302 RMK A01 T00021059  RH  063%=      5-min Rain = 0
KEA1 140915Z 01007KT 00/M06 A302 RMK A01 T00021059  RH  064%=      5-min Rain = 0
KEA1 140916Z 01006KT 00/M06 A302 RMK A01 T00021059  RH  064%=      5-min Rain = 0
KEA1 140917Z 01006KT 00/M06 A302 RMK A01 T00021059  RH  064%=      5-min Rain = 0
KEA1 140918Z 02006KT 00/M06 A302 RMK A01 T00021059  RH  064%=      5-min Rain = 0
KEA1 140919Z 02006KT 00/M06 A302 RMK A01 T00021059  RH  064%=      5-min Rain = 0
KEA1 140920Z 02006KT 00/M06 A3021 RMK A01 T00011059  RH  064%=      5-min Rain = 0
KEA1 140921Z 01006KT 00/M06 A3021 RMK A01 T00021058  RH  064%=      5-min Rain = 0
KEA1 140922Z 02006KT 00/M06 A3021 RMK A01 T00011058  RH  064%=      5-min Rain = 0
KEA1 140923Z 02006KT 00/M06 A3021 RMK A01 T00011059  RH  064%=      5-min Rain = 0
KEA1 140924Z 01006KT 00/M06 A3021 RMK A01 T00021058  RH  064%=      5-min Rain = 0
KEA1 140925Z 01007KT 00/M06 A3021 RMK A01 T00021058  RH  064%=      5-min Rain = 0
KEA1 140926Z 01007KT 00/M06 A3021 RMK A01 T00021058  RH  064%=      5-min Rain = 0
KEA1 140927Z 01006KT 00/M06 A3021 RMK A01 T00021058  RH  064%=      5-min Rain = 0
KEA1 140928Z 01007KT 00/M06 A3021 RMK A01 T00021058  RH  064%=      5-min Rain = 0
KEA1 140929Z 01006KT 00/M06 A3021 RMK A01 T00021059  RH  064%=      5-min Rain = 0
KEA1 140930Z 01007KT 00/M06 A3021 RMK A01 T00011059  RH  064%=      5-min Rain = 0
KEA1 140931Z 01007KT 00/06 A3021 RMK A01 T00000-60  RH  064%=      5-min Rain = 0
KEA1 140932Z 00007KT M00/M06 A3021 RMK A01 T10011060  RH  064%=      5-min Rain = 0
KEA1 140933Z 00007KT M00/M06 A3021 RMK A01 T10021061  RH  065%=      5-min Rain = 0
KEA1 140934Z 00007KT M00/M06 A3021 RMK A01 T10041061  RH  065%=      5-min Rain = 0
KEA1 140935Z 00008KT M01/M06 A3021 RMK A01 T10051061  RH  066%=      5-min Rain = 0
KEA1 140936Z 01007KT M01/M06 A3021 RMK A01 T10061061  RH  066%=      5-min Rain = 0
KEA1 140937Z 01007KT M01/M06 A3021 RMK A01 T10071061  RH  067%=      5-min Rain = 0
KEA1 140938Z 00007KT M01/M06 A3021 RMK A01 T10071061  RH  067%=      5-min Rain = 0
KEA1 140939Z 00007KT M01/M06 A3021 RMK A01 T10071061  RH  067%=      5-min Rain = 0
KEA1 140940Z 00007KT M01/M06 A3021 RMK A01 T10081061  RH  067%=      5-min Rain = 0
KEA1 140941Z 00007KT M01/M06 A3021 RMK A01 T10091062  RH  068%=      5-min Rain = 0
KEA1 140942Z 00007KT M01/M06 A3021 RMK A01 T10101061  RH  068%=      5-min Rain = 0
KEA1 140943Z 00007KT M01/M06 A3021 RMK A01 T10101061  RH  068%=      5-min Rain = 0
KEA1 140944Z 00007KT M01/M06 A3021 RMK A01 T10101061  RH  068%=      5-min Rain = 0
KEA1 140945Z 00007KT M01/M06 A3021 RMK A01 T10101061  RH  068%=      5-min Rain = 0
KEA1 140946Z 36007KT M01/M06 A3021 RMK A01 T10111062  RH  068%=      5-min Rain = 0
KEA1 140947Z 36007KT M01/M06 A3021 RMK A01 T10111062  RH  069%=      5-min Rain = 0
KEA1 140948Z 36007KT M01/M06 A3021 RMK A01 T10121062  RH  069%=      5-min Rain = 0
KEA1 140949Z 00007KT M01/M06 A3021 RMK A01 T10121062  RH  069%=      5-min Rain = 0
KEA1 140950Z 00007KT M01/M06 A3021 RMK A01 T10121061  RH  069%=      5-min Rain = 0
KEA1 140951Z 00008KT M01/M06 A3021 RMK A01 T10131061  RH  070%=      5-min Rain = 0
KEA1 140952Z 00008KT M01/M06 A3021 RMK A01 T10131061  RH  070%=      5-min Rain = 0
KEA1 140953Z 00008KT M01/M06 A3021 RMK A01 T10131061  RH  070%=      5-min Rain = 0
KEA1 140954Z 00009KT M01/M06 A3021 RMK A01 T10131061  RH  070%=      5-min Rain = 0
KEA1 140955Z 00008KT M01/M06 A3021 RMK A01 T10131061  RH  070%=      5-min Rain = 0
KEA1 140956Z 00008KT M01/M06 A3021 RMK A01 T10141061  RH  070%=      5-min Rain = 0
KEA1 140957Z 00009KT M01/M06 A3021 RMK A01 T10141061  RH  071%=      5-min Rain = 0
KEA1 140958Z 00009KT M02/M06 A3021 RMK A01 T10151061  RH  071%=      5-min Rain = 0
KEA1 140959Z 00009KT M02/M06 A3021 RMK A01 T10151060  RH  071%=      5-min Rain = 0
KEA1 141000Z 00009KT M02/M06 A3021 RMK A01 T10151060  RH  071%=      5-min Rain = 0
KEA1 141001Z 00009KT M02/M06 A3021 RMK A01 T10151060  RH  071%=      5-min Rain = 0
KEA1 141002Z 00008KT M02/M06 A3021 RMK A01 T10161060  RH  072%=      5-min Rain = 0
KEA1 141003Z 00008KT M02/M06 A3021 RMK A01 T10161061  RH  072%=      5-min Rain = 0
KEA1 141004Z 00008KT M02/M06 A3021 RMK A01 T10171061  RH  072%=      5-min Rain = 0
KEA1 141005Z 36008KT M02/M06 A3021 RMK A01 T10181062  RH  072%=      5-min Rain = 0
KEA1 141006Z 35008KT M02/M06 A3021 RMK A01 T10191062  RH  072%=      5-min Rain = 0
KEA1 141007Z 36008KT M02/M06 A3021 RMK A01 T10201062  RH  073%=      5-min Rain = 0
KEA1 141008Z 36008KT M02/M06 A3021 RMK A01 T10191061  RH  073%=      5-min Rain = 0
KEA1 141009Z 36008KT M02/M06 A3021 RMK A01 T10191061  RH  073%=      5-min Rain = 0
KEA1 141010Z 35008KT M02/M06 A3021 RMK A01 T10191061  RH  073%=      5-min Rain = 0
KEA1 141011Z 35008KT M02/M06 A3021 RMK A01 T10191061  RH  073%=      5-min Rain = 0
KEA1 141012Z 35008KT M02/M06 A3021 RMK A01 T10191061  RH  073%=      5-min Rain = 0
KEA1 141013Z 35008KT M02/M06 A3021 RMK A01 T10191061  RH  073%=      5-min Rain = 0
KEA1 141014Z 35008KT M02/M06 A3021 RMK A01 T10201061  RH  073%=      5-min Rain = 0
KEA1 141015Z 35008KT M02/M06 A3021 RMK A01 T10201061  RH  073%=      5-min Rain = 0
KEA1 141016Z 35008KT M02/M06 A3021 RMK A01 T10191061  RH  073%=      5-min Rain = 0
KEA1 141017Z 35008KT M02/M06 A3021 RMK A01 T10191061  RH  073%=      5-min Rain = 0
KEA1 141018Z 36008KT M02/M06 A3021 RMK A01 T10201061  RH  073%=      5-min Rain = 0
KEA1 141019Z 36008KT M02/M06 A3021 RMK A01 T10201061  RH  073%=      5-min Rain = 0
KEA1 141020Z 35008KT M02/M06 A3021 RMK A01 T10191061  RH  073%=      5-min Rain = 0
KEA1 141021Z 36007KT M02/M06 A3021 RMK A01 T10201061  RH  073%=      5-min Rain = 0
KEA1 141022Z 36007KT M02/M06 A3021 RMK A01 T10201061  RH  073%=      5-min Rain = 0
KEA1 141023Z 36008KT M02/M06 A3021 RMK A01 T10191060  RH  073%=      5-min Rain = 0
KEA1 141024Z 36007KT M02/M06 A3021 RMK A01 T10201061  RH  074%=      5-min Rain = 0
KEA1 141025Z 36007KT M02/M06 A3021 RMK A01 T10201061  RH  074%=      5-min Rain = 0
KEA1 141026Z 36007KT M02/M06 A3022 RMK A01 T10201061  RH  074%=      5-min Rain = 0
KEA1 141027Z 00006KT M02/M06 A3021 RMK A01 T10201060  RH  074%=      5-min Rain = 0
KEA1 141028Z 00007KT M02/M06 A3021 RMK A01 T10201060  RH  074%=      5-min Rain = 0
KEA1 141029Z 00007KT M02/M06 A3021 RMK A01 T10201060  RH  074%=      5-min Rain = 0
KEA1 141030Z 00007KT M02/M06 A3021 RMK A01 T10201061  RH  074%=      5-min Rain = 0
KEA1 141031Z 00007KT M02/M06 A3022 RMK A01 T10191060  RH  074%=      5-min Rain = 0
KEA1 141032Z 00007KT M02/M06 A3022 RMK A01 T10191060  RH  073%=      5-min Rain = 0
KEA1 141033Z 01007KT M02/M06 A3022 RMK A01 T10181060  RH  073%=      5-min Rain = 0
KEA1 141034Z 01006KT M02/M06 A3022 RMK A01 T10181060  RH  073%=      5-min Rain = 0
KEA1 141035Z 01006KT M02/M06 A3022 RMK A01 T10191060  RH  073%=      5-min Rain = 0
KEA1 141036Z 02006KT M02/M06 A3022 RMK A01 T10191061  RH  073%=      5-min Rain = 0
KEA1 141037Z 02006KT M02/M06 A3022 RMK A01 T10191060  RH  074%=      5-min Rain = 0
KEA1 141038Z 02006KT M02/M06 A3022 RMK A01 T10201060  RH  074%=      5-min Rain = 0
KEA1 141039Z 02006KT M02/M06 A3022 RMK A01 T10191060  RH  074%=      5-min Rain = 0
KEA1 141040Z 02006KT M02/M06 A3022 RMK A01 T10191060  RH  074%=      5-min Rain = 0
KEA1 141041Z 02006KT M02/M06 A3022 RMK A01 T10181059  RH  073%=      5-min Rain = 0
KEA1 141042Z 02006KT M02/M06 A3022 RMK A01 T10181059  RH  073%=      5-min Rain = 0
KEA1 141043Z 02007KT M02/M06 A3022 RMK A01 T10171059  RH  073%=      5-min Rain = 0
KEA1 141044Z 02007KT M02/M06 A3022 RMK A01 T10181059  RH  073%=      5-min Rain = 0
KEA1 141045Z 02007KT M02/M06 A3022 RMK A01 T10171059  RH  073%=      5-min Rain = 0
KEA1 141046Z 02008KT M02/M06 A3022 RMK A01 T10171058  RH  073%=      5-min Rain = 0
KEA1 141047Z 02007KT M02/M06 A3022 RMK A01 T10161057  RH  074%=      5-min Rain = 0
KEA1 141048Z 02007KT M02/M06 A3022 RMK A01 T10161057  RH  073%=      5-min Rain = 0
KEA1 141049Z 02007KT M02/M06 A3022 RMK A01 T10161057  RH  073%=      5-min Rain = 0
KEA1 141050Z 02007KT M02/M06 A3022 RMK A01 T10161058  RH  073%=      5-min Rain = 0
KEA1 141051Z 02007KT M01/M06 A3022 RMK A01 T10141056  RH  073%=      5-min Rain = 0
KEA1 141052Z 02007KT M01/M06 A3022 RMK A01 T10141056  RH  073%=      5-min Rain = 0
KEA1 141053Z 02007KT M01/M06 A3022 RMK A01 T10141056  RH  073%=      5-min Rain = 0
KEA1 141054Z 01006KT M01/M06 A3022 RMK A01 T10131055  RH  073%=      5-min Rain = 0
KEA1 141055Z 01007KT M01/M05 A3022 RMK A01 T10121054  RH  073%=      5-min Rain = 0
KEA1 141056Z 01007KT M01/M05 A3022 RMK A01 T10121054  RH  073%=      5-min Rain = 0
KEA1 141057Z 01006KT M01/M06 A3022 RMK A01 T10121055  RH  073%=      5-min Rain = 0
KEA1 141058Z 01007KT M01/M06 A3023 RMK A01 T10121055  RH  073%=      5-min Rain = 0
KEA1 141059Z 01007KT M01/M06 A3023 RMK A01 T10121055  RH  073%=      5-min Rain = 0
KEA1 141100Z 01007KT M01/M05 A3023 RMK A01 T10111054  RH  073%=      5-min Rain = 0
KEA1 141101Z 01007KT M01/M05 A3023 RMK A01 T10111054  RH  073%=      5-min Rain = 0
KEA1 141102Z 01007KT M01/M05 A3023 RMK A01 T10111054  RH  072%=      5-min Rain = 0
KEA1 141103Z 01008KT M01/M05 A3023 RMK A01 T10111054  RH  072%=      5-min Rain = 0
KEA1 141104Z 01007KT M01/M05 A3023 RMK A01 T10101054  RH  072%=      5-min Rain = 0
KEA1 141105Z 01007KT M01/M05 A3023 RMK A01 T10111054  RH  073%=      5-min Rain = 0
KEA1 141106Z 01007KT M01/M05 A3023 RMK A01 T10111053  RH  073%=      5-min Rain = 0
KEA1 141107Z 01008KT M01/M05 A3023 RMK A01 T10111053  RH  073%=      5-min Rain = 0
KEA1 141108Z 01007KT M01/M05 A3023 RMK A01 T10111053  RH  073%=      5-min Rain = 0
KEA1 141109Z 01007KT M01/M05 A3023 RMK A01 T10111052  RH  073%=      5-min Rain = 0
KEA1 141110Z 01007KT M01/M05 A3023 RMK A01 T10111052  RH  073%=      5-min Rain = 0
KEA1 141111Z 01007KT M01/M05 A3023 RMK A01 T10111052  RH  074%=      5-min Rain = 0
KEA1 141112Z 01007KT M01/M05 A3023 RMK A01 T10111052  RH  074%=      5-min Rain = 0
KEA1 141113Z 01006KT M01/M05 A3023 RMK A01 T10101051  RH  074%=      5-min Rain = 0
KEA1 141114Z 01006KT M01/M05 A3023 RMK A01 T10101050  RH  074%=      5-min Rain = 0
KEA1 141115Z 01006KT M01/M05 A3023 RMK A01 T10091050  RH  074%=      5-min Rain = 0
KEA1 141116Z 01007KT M01/M05 A3023 RMK A01 T10081049  RH  074%=      5-min Rain = 0
KEA1 141117Z 01006KT M01/M05 A3023 RMK A01 T10071049  RH  073%=      5-min Rain = 0
KEA1 141118Z 02006KT M01/M05 A3023 RMK A01 T10071049  RH  073%=      5-min Rain = 0
KEA1 141119Z 01006KT M01/M05 A3024 RMK A01 T10061049  RH  073%=      5-min Rain = 0
KEA1 141120Z 01005KT M01/M05 A3024 RMK A01 T10061048  RH  073%=      5-min Rain = 0
KEA1 141121Z 01006KT M01/M05 A3024 RMK A01 T10051048  RH  073%=      5-min Rain = 0
KEA1 141122Z 01006KT M00/M05 A3024 RMK A01 T10041047  RH  073%=      5-min Rain = 0
KEA1 141123Z 01006KT M00/M05 A3024 RMK A01 T10031047  RH  072%=      5-min Rain = 0
KEA1 141124Z 01007KT M00/M05 A3024 RMK A01 T10031047  RH  072%=      5-min Rain = 0
KEA1 141125Z 01007KT M00/M05 A3024 RMK A01 T10021047  RH  072%=      5-min Rain = 0
KEA1 141126Z 01006KT M00/M05 A3024 RMK A01 T10011047  RH  071%=      5-min Rain = 0
KEA1 141127Z 01006KT M00/M05 A3024 RMK A01 T10011047  RH  071%=      5-min Rain = 0
KEA1 141128Z 01006KT M00/M05 A3024 RMK A01 T10021047  RH  072%=      5-min Rain = 0
KEA1 141129Z 01006KT M00/M05 A3024 RMK A01 T10021047  RH  072%=      5-min Rain = 0
KEA1 141130Z 01006KT M00/M05 A3024 RMK A01 T10031048  RH  072%=      5-min Rain = 0
KEA1 141131Z 01006KT M00/M05 A3024 RMK A01 T10031047  RH  072%=      5-min Rain = 0
KEA1 141132Z 01006KT M00/M05 A3024 RMK A01 T10031047  RH  072%=      5-min Rain = 0
KEA1 141133Z 01006KT M00/M05 A3024 RMK A01 T10041048  RH  072%=      5-min Rain = 0
KEA1 141134Z 01006KT M00/M05 A3024 RMK A01 T10041048  RH  072%=      5-min Rain = 0
KEA1 141135Z 01006KT M00/M05 A3024 RMK A01 T10041048  RH  072%=      5-min Rain = 0
KEA1 141136Z 01006KT M01/M05 A3024 RMK A01 T10051048  RH  073%=      5-min Rain = 0
KEA1 141137Z 01006KT M01/M05 A3025 RMK A01 T10051048  RH  073%=      5-min Rain = 0
KEA1 141138Z 02005KT M01/M05 A3025 RMK A01 T10061048  RH  073%=      5-min Rain = 0
KEA1 141139Z 02005KT M01/M05 A3025 RMK A01 T10061048  RH  073%=      5-min Rain = 0
KEA1 141140Z 02006KT M01/M05 A3025 RMK A01 T10061048  RH  073%=      5-min Rain = 0
KEA1 141141Z 02005KT M01/M05 A3025 RMK A01 T10061047  RH  074%=      5-min Rain = 0
KEA1 141142Z 02005KT M01/M05 A3025 RMK A01 T10061048  RH  073%=      5-min Rain = 0
KEA1 141143Z 02005KT M01/M05 A3025 RMK A01 T10061048  RH  073%=      5-min Rain = 0
KEA1 141144Z 02005KT M01/M05 A3025 RMK A01 T10061047  RH  073%=      5-min Rain = 0
KEA1 141145Z 02006KT M01/M05 A3025 RMK A01 T10061047  RH  073%=      5-min Rain = 0
KEA1 141146Z 02006KT M01/M05 A3025 RMK A01 T10061048  RH  073%=      5-min Rain = 0
KEA1 141147Z 02006KT M01/M05 A3025 RMK A01 T10061048  RH  073%=      5-min Rain = 0
KEA1 141148Z 02006KT M01/M05 A3025 RMK A01 T10061048  RH  073%=      5-min Rain = 0
KEA1 141149Z 02006KT M01/M05 A3025 RMK A01 T10061048  RH  073%=      5-min Rain = 0
KEA1 141150Z 02006KT M01/M05 A3025 RMK A01 T10061048  RH  073%=      5-min Rain = 0
KEA1 141151Z 02006KT M01/M05 A3025 RMK A01 T10061048  RH  073%=      5-min Rain = 0
KEA1 141152Z 02006KT M01/M05 A3025 RMK A01 T10051048  RH  073%=      5-min Rain = 0
KEA1 141153Z 03006KT M01/M05 A3025 RMK A01 T10061048  RH  073%=      5-min Rain = 0
KEA1 141154Z 03006KT M01/M05 A3025 RMK A01 T10051048  RH  073%=      5-min Rain = 0
KEA1 141155Z 02006KT M01/M05 A3025 RMK A01 T10051048  RH  073%=      5-min Rain = 0
KEA1 141156Z 03006KT M01/M05 A3025 RMK A01 T10061049  RH  073%=      5-min Rain = 0
KEA1 141157Z 03006KT M01/M05 A3025 RMK A01 T10071049  RH  073%=      5-min Rain = 0
KEA1 141158Z 02006KT M01/M05 A3026 RMK A01 T10071049  RH  073%=      5-min Rain = 0
KEA1 141159Z 02006KT M01/M05 A3026 RMK A01 T10071049  RH  073%=      5-min Rain = 0
KEA1 141200Z 02006KT M01/M05 A3026 RMK A01 T10071049  RH  073%=      5-min Rain = 0
KEA1 141201Z 02006KT M01/M05 A3026 RMK A01 T10071049  RH  073%=      5-min Rain = 0
KEA1 141202Z 02007KT M01/M05 A3026 RMK A01 T10081049  RH  073%=      5-min Rain = 0
KEA1 141203Z 01007KT M01/M05 A3026 RMK A01 T10081050  RH  073%=      5-min Rain = 0
KEA1 141204Z 02007KT M01/M05 A3026 RMK A01 T10091050  RH  074%=      5-min Rain = 0
KEA1 141205Z 02007KT M01/M05 A3026 RMK A01 T10091050  RH  074%=      5-min Rain = 0
KEA1 141206Z 02007KT M01/M05 A3026 RMK A01 T10091050  RH  074%=      5-min Rain = 0
KEA1 141207Z 02007KT M01/M05 A3026 RMK A01 T10081049  RH  074%=      5-min Rain = 0
KEA1 141208Z 02008KT M01/M05 A3026 RMK A01 T10091049  RH  074%=      5-min Rain = 0
KEA1 141209Z 02008KT M01/M05 A3026 RMK A01 T10091049  RH  074%=      5-min Rain = 0
KEA1 141210Z 01008KT M01/M05 A3026 RMK A01 T10091049  RH  074%=      5-min Rain = 0
KEA1 141211Z 01008KT M01/M05 A3026 RMK A01 T10091049  RH  074%=      5-min Rain = 0
KEA1 141212Z 01008KT M01/M05 A3027 RMK A01 T10091049  RH  074%=      5-min Rain = 0
KEA1 141213Z 01008KT M01/M05 A3027 RMK A01 T10091050  RH  074%=      5-min Rain = 0
KEA1 141214Z 01008KT M01/M05 A3027 RMK A01 T10091050  RH  074%=      5-min Rain = 0
KEA1 141215Z 01008KT M01/M05 A3027 RMK A01 T10091050  RH  074%=      5-min Rain = 0
KEA1 141216Z 01008KT M01/M05 A3027 RMK A01 T10101050  RH  074%=      5-min Rain = 0
KEA1 141217Z 01008KT M01/M05 A3027 RMK A01 T10111051  RH  074%=      5-min Rain = 0
KEA1 141218Z 01007KT M01/M05 A3027 RMK A01 T10111051  RH  074%=      5-min Rain = 0
KEA1 141219Z 01007KT M01/M05 A3027 RMK A01 T10111051  RH  075%=      5-min Rain = 0
KEA1 141220Z 01007KT M01/M05 A3027 RMK A01 T10121051  RH  075%=      5-min Rain = 0
KEA1 141221Z 01008KT M01/M05 A3027 RMK A01 T10121051  RH  075%=      5-min Rain = 0
KEA1 141222Z 01007KT M01/M05 A3027 RMK A01 T10121051  RH  075%=      5-min Rain = 0
KEA1 141223Z 01007KT M01/M05 A3027 RMK A01 T10121051  RH  075%=      5-min Rain = 0
KEA1 141224Z 01006KT M01/M05 A3027 RMK A01 T10121051  RH  075%=      5-min Rain = 0
KEA1 141225Z 01006KT M01/M05 A3027 RMK A01 T10131052  RH  075%=      5-min Rain = 0
KEA1 141226Z 01006KT M01/M05 A3027 RMK A01 T10121051  RH  075%=      5-min Rain = 0
KEA1 141227Z 01006KT M01/M05 A3027 RMK A01 T10131051  RH  075%=      5-min Rain = 0
KEA1 141228Z 01006KT M01/M05 A3028 RMK A01 T10131052  RH  075%=      5-min Rain = 0
KEA1 141229Z 01006KT M01/M05 A3028 RMK A01 T10131052  RH  075%=      5-min Rain = 0
KEA1 141230Z 00006KT M01/M05 A3028 RMK A01 T10131051  RH  075%=      5-min Rain = 0
KEA1 141231Z 00006KT M01/M05 A3028 RMK A01 T10131052  RH  075%=      5-min Rain = 0
KEA1 141232Z 36006KT M01/M05 A3028 RMK A01 T10131052  RH  075%=      5-min Rain = 0
KEA1 141233Z 36006KT M01/M05 A3028 RMK A01 T10131052  RH  075%=      5-min Rain = 0
KEA1 141234Z 36006KT M01/M05 A3028 RMK A01 T10141052  RH  075%=      5-min Rain = 0
KEA1 141235Z 36006KT M01/M05 A3028 RMK A01 T10141052  RH  075%=      5-min Rain = 0
KEA1 141236Z 35006KT M01/M05 A3028 RMK A01 T10141051  RH  075%=      5-min Rain = 0
KEA1 141237Z 35006KT M01/M05 A3028 RMK A01 T10141052  RH  075%=      5-min Rain = 0
KEA1 141238Z 35006KT M01/M05 A3028 RMK A01 T10141052  RH  075%=      5-min Rain = 0
KEA1 141239Z 35005KT M01/M05 A3028 RMK A01 T10141052  RH  075%=      5-min Rain = 0
KEA1 141240Z 35006KT M01/M05 A3029 RMK A01 T10131051  RH  075%=      5-min Rain = 0
KEA1 141241Z 35006KT M01/M05 A3029 RMK A01 T10131051  RH  075%=      5-min Rain = 0
KEA1 141242Z 34006KT M01/M05 A3029 RMK A01 T10131052  RH  075%=      5-min Rain = 0
KEA1 141243Z 34006KT M01/M05 A3029 RMK A01 T10141053  RH  075%=      5-min Rain = 0
KEA1 141244Z 34006KT M02/M05 A3029 RMK A01 T10151053  RH  075%=      5-min Rain = 0
KEA1 141245Z 34006KT M02/M05 A3029 RMK A01 T10161054  RH  075%=      5-min Rain = 0
KEA1 141246Z 34006KT M02/M05 A3029 RMK A01 T10171054  RH  076%=      5-min Rain = 0
KEA1 141247Z 34006KT M02/M05 A3029 RMK A01 T10171054  RH  076%=      5-min Rain = 0
KEA1 141248Z 34006KT M02/M05 A3029 RMK A01 T10171054  RH  076%=      5-min Rain = 0
KEA1 141249Z 34005KT M02/M05 A3029 RMK A01 T10171053  RH  076%=      5-min Rain = 0
KEA1 141250Z 33005KT M02/M05 A3029 RMK A01 T10171053  RH  076%=      5-min Rain = 0
KEA1 141251Z 33006KT M02/M05 A3029 RMK A01 T10171053  RH  077%=      5-min Rain = 0
KEA1 141252Z 32005KT M02/M05 A3029 RMK A01 T10171053  RH  077%=      5-min Rain = 0
KEA1 141253Z 31005KT M02/M05 A3029 RMK A01 T10181053  RH  077%=      5-min Rain = 0
KEA1 141254Z 32005KT M02/M05 A3029 RMK A01 T10181054  RH  077%=      5-min Rain = 0
KEA1 141255Z 32005KT M02/M05 A3029 RMK A01 T10191054  RH  077%=      5-min Rain = 0
KEA1 141256Z 32005KT M02/M05 A3029 RMK A01 T10191054  RH  077%=      5-min Rain = 0
KEA1 141257Z 32005KT M02/M05 A3029 RMK A01 T10201054  RH  077%=      5-min Rain = 0
KEA1 141258Z 32005KT M02/M05 A3029 RMK A01 T10201053  RH  078%=      5-min Rain = 0
KEA1 141259Z 32005KT M02/M05 A3029 RMK A01 T10191053  RH  078%=      5-min Rain = 0
KEA1 141300Z 32005KT M02/M05 A303 RMK A01 T10191053  RH  078%=      5-min Rain = 0
KEA1 141301Z 32005KT M02/M05 A303 RMK A01 T10191053  RH  077%=      5-min Rain = 0
KEA1 141302Z 33005KT M02/M05 A303 RMK A01 T10191054  RH  077%=      5-min Rain = 0
KEA1 141303Z 32005KT M02/M05 A303 RMK A01 T10191053  RH  077%=      5-min Rain = 0
KEA1 141304Z 33005KT M02/M05 A303 RMK A01 T10181053  RH  077%=      5-min Rain = 0
KEA1 141305Z 33006KT M02/M05 A303 RMK A01 T10181053  RH  077%=      5-min Rain = 0
KEA1 141306Z 33005KT M02/M05 A303 RMK A01 T10181052  RH  077%=      5-min Rain = 0
KEA1 141307Z 33005KT M02/M05 A303 RMK A01 T10181052  RH  077%=      5-min Rain = 0
KEA1 141308Z 32005KT M02/M05 A303 RMK A01 T10181053  RH  077%=      5-min Rain = 0
KEA1 141309Z 32005KT M02/M05 A303 RMK A01 T10171053  RH  077%=      5-min Rain = 0
KEA1 141310Z 32005KT M02/M05 A303 RMK A01 T10171053  RH  077%=      5-min Rain = 0
KEA1 141311Z 31005KT M02/M05 A3031 RMK A01 T10171053  RH  077%=      5-min Rain = 0
KEA1 141312Z 31005KT M02/M05 A3031 RMK A01 T10181052  RH  077%=      5-min Rain = 0
KEA1 141313Z 31005KT M02/M05 A3031 RMK A01 T10181052  RH  077%=      5-min Rain = 0
KEA1 141314Z 32005KT M02/M05 A3031 RMK A01 T10171052  RH  077%=      5-min Rain = 0
KEA1 141315Z 31005KT M02/M05 A3031 RMK A01 T10171052  RH  077%=      5-min Rain = 0
KEA1 141316Z 31005KT M02/M05 A3031 RMK A01 T10171051  RH  077%=      5-min Rain = 0
KEA1 141317Z 31005KT M02/M05 A3031 RMK A01 T10171052  RH  077%=      5-min Rain = 0
KEA1 141318Z 31005KT M02/M05 A3031 RMK A01 T10181053  RH  077%=      5-min Rain = 0
KEA1 141319Z 31005KT M02/M05 A3031 RMK A01 T10201054  RH  078%=      5-min Rain = 0
KEA1 141320Z 31005KT M02/M05 A3031 RMK A01 T10211054  RH  078%=      5-min Rain = 0
KEA1 141321Z 31005KT M02/M05 A3031 RMK A01 T10201053  RH  078%=      5-min Rain = 0
KEA1 141322Z 31005KT M02/M05 A3031 RMK A01 T10211054  RH  078%=      5-min Rain = 0
KEA1 141323Z 30005KT M02/M05 A3031 RMK A01 T10221054  RH  078%=      5-min Rain = 0
KEA1 141324Z 31005KT M02/M06 A3031 RMK A01 T10231055  RH  078%=      5-min Rain = 0
KEA1 141325Z 31004KT M02/M06 A3031 RMK A01 T10231056  RH  079%=      5-min Rain = 0
KEA1 141326Z 31004KT M02/M06 A3031 RMK A01 T10231055  RH  079%=      5-min Rain = 0
KEA1 141327Z 31004KT M02/M06 A3031 RMK A01 T10241055  RH  079%=      5-min Rain = 0
KEA1 141328Z 31004KT M02/M06 A3031 RMK A01 T10241055  RH  079%=      5-min Rain = 0
KEA1 141329Z 31004KT M02/M06 A3032 RMK A01 T10241056  RH  079%=      5-min Rain = 0
KEA1 141330Z 31005KT M03/M06 A3032 RMK A01 T10251056  RH  079%=      5-min Rain = 0
KEA1 141331Z 31005KT M03/M06 A3032 RMK A01 T10251056  RH  079%=      5-min Rain = 0
KEA1 141332Z 31005KT M02/M06 A3032 RMK A01 T10241056  RH  079%=      5-min Rain = 0
KEA1 141333Z 31005KT M02/M06 A3032 RMK A01 T10241056  RH  079%=      5-min Rain = 0
KEA1 141334Z 32005KT M02/M06 A3032 RMK A01 T10241056  RH  079%=      5-min Rain = 0
KEA1 141335Z 32005KT M02/M06 A3032 RMK A01 T10241056  RH  079%=      5-min Rain = 0
KEA1 141336Z 32005KT M02/M06 A3032 RMK A01 T10241055  RH  079%=      5-min Rain = 0
KEA1 141337Z 32005KT M02/M06 A3032 RMK A01 T10231055  RH  079%=      5-min Rain = 0
KEA1 141338Z 32005KT M02/M05 A3032 RMK A01 T10221054  RH  079%=      5-min Rain = 0
KEA1 141339Z 31005KT M02/M05 A3032 RMK A01 T10221054  RH  079%=      5-min Rain = 0
KEA1 141340Z 32004KT M02/M05 A3032 RMK A01 T10211054  RH  079%=      5-min Rain = 0
KEA1 141341Z 31004KT M02/M05 A3032 RMK A01 T10211053  RH  078%=      5-min Rain = 0
KEA1 141342Z 31004KT M02/M05 A3032 RMK A01 T10211054  RH  078%=      5-min Rain = 0
KEA1 141343Z 32004KT M02/M05 A3032 RMK A01 T10201053  RH  078%=      5-min Rain = 0
KEA1 141344Z 31004KT M02/M05 A3032 RMK A01 T10201053  RH  078%=      5-min Rain = 0
KEA1 141345Z 32004KT M02/M05 A3032 RMK A01 T10201053  RH  078%=      5-min Rain = 0
KEA1 141346Z 32004KT M02/M05 A3032 RMK A01 T10201053  RH  078%=      5-min Rain = 0
KEA1 141347Z 32004KT M02/M05 A3033 RMK A01 T10201052  RH  078%=      5-min Rain = 0
KEA1 141348Z 32004KT M02/M05 A3033 RMK A01 T10191052  RH  078%=      5-min Rain = 0
KEA1 141349Z 32004KT M02/M05 A3033 RMK A01 T10191052  RH  078%=      5-min Rain = 0
KEA1 141350Z 32004KT M02/M05 A3033 RMK A01 T10181052  RH  078%=      5-min Rain = 0
KEA1 141351Z 33005KT M02/M05 A3033 RMK A01 T10181052  RH  078%=      5-min Rain = 0
KEA1 141352Z 32005KT M02/M05 A3033 RMK A01 T10181052  RH  078%=      5-min Rain = 0
KEA1 141353Z 33004KT M02/M05 A3033 RMK A01 T10171051  RH  078%=      5-min Rain = 0
KEA1 141354Z 33005KT M02/M05 A3033 RMK A01 T10161050  RH  077%=      5-min Rain = 0
KEA1 141355Z 33004KT M02/M05 A3033 RMK A01 T10161051  RH  077%=      5-min Rain = 0
KEA1 141356Z 33005KT M02/M05 A3033 RMK A01 T10161051  RH  077%=      5-min Rain = 0
KEA1 141357Z 33004KT M02/M05 A3033 RMK A01 T10151050  RH  077%=      5-min Rain = 0
KEA1 141358Z 33005KT M01/M05 A3033 RMK A01 T10141049  RH  077%=      5-min Rain = 0
KEA1 141359Z 33005KT M01/M05 A3034 RMK A01 T10131048  RH  077%=      5-min Rain = 0
KEA1 141400Z 33005KT M01/M05 A3034 RMK A01 T10121047  RH  077%=      5-min Rain = 0
KEA1 141401Z 33005KT M01/M05 A3034 RMK A01 T10111046  RH  077%=      5-min Rain = 0
KEA1 141402Z 33005KT M01/M05 A3034 RMK A01 T10101046  RH  076%=      5-min Rain = 0
KEA1 141403Z 33004KT M01/M05 A3034 RMK A01 T10081045  RH  076%=      5-min Rain = 0
KEA1 141404Z 34004KT M01/M05 A3034 RMK A01 T10081045  RH  076%=      5-min Rain = 0
KEA1 141405Z 33004KT M01/M04 A3034 RMK A01 T10061044  RH  076%=      5-min Rain = 0
KEA1 141406Z 33004KT M01/M04 A3034 RMK A01 T10051044  RH  075%=      5-min Rain = 0
KEA1 141407Z 32004KT M00/M04 A3034 RMK A01 T10041043  RH  075%=      5-min Rain = 0
KEA1 141408Z 32005KT M00/M04 A3034 RMK A01 T10041043  RH  075%=      5-min Rain = 0
KEA1 141409Z 32004KT M00/M04 A3034 RMK A01 T10031043  RH  074%=      5-min Rain = 0
KEA1 141410Z 33005KT M00/M04 A3034 RMK A01 T10031043  RH  074%=      5-min Rain = 0
KEA1 141411Z 32004KT M00/M04 A3034 RMK A01 T10021043  RH  074%=      5-min Rain = 0
KEA1 141412Z 33004KT M00/M04 A3034 RMK A01 T10011042  RH  074%=      5-min Rain = 0
KEA1 141413Z 33004KT 00/04 A3034 RMK A01 T00000-42  RH  073%=      5-min Rain = 0
KEA1 141414Z 34004KT 00/M04 A3034 RMK A01 T00011041  RH  073%=      5-min Rain = 0
KEA1 141415Z 34004KT 00/M04 A3034 RMK A01 T00021041  RH  073%=      5-min Rain = 0
KEA1 141416Z 34004KT 00/M04 A3034 RMK A01 T00031040  RH  073%=      5-min Rain = 0
KEA1 141417Z 34004KT 00/M04 A3034 RMK A01 T00041041  RH  072%=      5-min Rain = 0
KEA1 141418Z 34004KT 00/M04 A3034 RMK A01 T00041041  RH  072%=      5-min Rain = 0
KEA1 141419Z 34004KT 01/M04 A3035 RMK A01 T00051041  RH  071%=      5-min Rain = 0
KEA1 141420Z 34004KT 01/M04 A3035 RMK A01 T00051041  RH  071%=      5-min Rain = 0
KEA1 141421Z 34004KT 01/M04 A3035 RMK A01 T00061040  RH  071%=      5-min Rain = 0
KEA1 141422Z 34004KT 01/M04 A3035 RMK A01 T00061040  RH  071%=      5-min Rain = 0
KEA1 141423Z 34003KT 01/M04 A3035 RMK A01 T00071040  RH  071%=      5-min Rain = 0
KEA1 141424Z 34002KT 01/M04 A3035 RMK A01 T00071039  RH  071%=      5-min Rain = 0
KEA1 141425Z 34004KT 01/M04 A3035 RMK A01 T00091038  RH  071%=      5-min Rain = 0
KEA1 141426Z 34004KT 01/M04 A3035 RMK A01 T00101037  RH  071%=      5-min Rain = 0
KEA1 141427Z 35004KT 01/M04 A3035 RMK A01 T00111037  RH  070%=      5-min Rain = 0
KEA1 141428Z 35004KT 01/M04 A3035 RMK A01 T00121037  RH  070%=      5-min Rain = 0
KEA1 141429Z 35004KT 01/M04 A3035 RMK A01 T00131037  RH  070%=      5-min Rain = 0
KEA1 141430Z 35004KT 01/M04 A3035 RMK A01 T00131037  RH  069%=      5-min Rain = 0
KEA1 141431Z 35004KT 01/M04 A3035 RMK A01 T00131037  RH  069%=      5-min Rain = 0
KEA1 141432Z 35005KT 01/M04 A3036 RMK A01 T00141036  RH  070%=      5-min Rain = 0
KEA1 141433Z 35005KT 02/M04 A3036 RMK A01 T00151035  RH  069%=      5-min Rain = 0
KEA1 141434Z 36005KT 02/M03 A3036 RMK A01 T00161034  RH  069%=      5-min Rain = 0
KEA1 141435Z 00005KT 02/M04 A3036 RMK A01 T00161035  RH  069%=      5-min Rain = 0
KEA1 141436Z 00005KT 02/M03 A3036 RMK A01 T00171033  RH  069%=      5-min Rain = 0
KEA1 141437Z 01005KT 02/M03 A3036 RMK A01 T00191031  RH  069%=      5-min Rain = 0
KEA1 141438Z 01005KT 02/M03 A3036 RMK A01 T00211031  RH  069%=      5-min Rain = 0
KEA1 141439Z 01005KT 02/M03 A3036 RMK A01 T00211031  RH  068%=      5-min Rain = 0
KEA1 141440Z 00005KT 02/M03 A3036 RMK A01 T00221030  RH  068%=      5-min Rain = 0
KEA1 141441Z 36007KT 02/M03 A3036 RMK A01 T00241030  RH  068%=      5-min Rain = 0
KEA1 141442Z 00007KT 02/M03 A3037 RMK A01 T00241030  RH  067%=      5-min Rain = 0
KEA1 141443Z 00005KT 02/M03 A3037 RMK A01 T00231031  RH  067%=      5-min Rain = 0
KEA1 141444Z 00005KT 02/M03 A3037 RMK A01 T00231030  RH  068%=      5-min Rain = 0
KEA1 141445Z 00004KT 02/M03 A3037 RMK A01 T00241029  RH  068%=      5-min Rain = 0
KEA1 141446Z 00004KT 03/M03 A3037 RMK A01 T00251029  RH  067%=      5-min Rain = 0
KEA1 141447Z 00006KT 03/M03 A3037 RMK A01 T00261028  RH  067%=      5-min Rain = 0
KEA1 141448Z 02007KT 03/M03 A3037 RMK A01 T00271028  RH  067%=      5-min Rain = 0
KEA1 141449Z 03004KT 03/M03 A3037 RMK A01 T00281027  RH  067%=      5-min Rain = 0
KEA1 141450Z 03003KT 03/M03 A3037 RMK A01 T00291026  RH  067%=      5-min Rain = 0
KEA1 141451Z 03006KT 03/M03 A3037 RMK A01 T00311025  RH  067%=      5-min Rain = 0
KEA1 141452Z 03006KT 03/M02 A3037 RMK A01 T00341023  RH  067%=      5-min Rain = 0
KEA1 141453Z 03006KT 04/M02 A3037 RMK A01 T00351024  RH  066%=      5-min Rain = 0
KEA1 141454Z 03005KT 04/M02 A3037 RMK A01 T00351024  RH  065%=      5-min Rain = 0
KEA1 141455Z 02005KT 04/M02 A3037 RMK A01 T00371022  RH  065%=      5-min Rain = 0
KEA1 141456Z 03007KT 04/M02 A3037 RMK A01 T00391021  RH  065%=      5-min Rain = 0
KEA1 141457Z 03005KT 04/M02 A3037 RMK A01 T00391022  RH  065%=      5-min Rain = 0
KEA1 141458Z 03005KT 04/M02 A3037 RMK A01 T00411019  RH  065%=      5-min Rain = 0
KEA1 141459Z 04006KT 04/M02 A3037 RMK A01 T00431020  RH  064%=      5-min Rain = 0
KEA1 141500Z 03005KT 04/M02 A3037 RMK A01 T00431021  RH  063%=      5-min Rain = 0
KEA1 141501Z 04007KT 04/M02 A3037 RMK A01 T00431020  RH  063%=      5-min Rain = 0
KEA1 141502Z 05008KT 04/M02 A3037 RMK A01 T00441020  RH  063%=      5-min Rain = 0
KEA1 141503Z 04006KT 04/M02 A3037 RMK A01 T00431019  RH  064%=      5-min Rain = 0
KEA1 141504Z 05007KT 05/M02 A3037 RMK A01 T00451017  RH  064%=      5-min Rain = 0
KEA1 141505Z 06010KT 05/M02 A3038 RMK A01 T00461018  RH  063%=      5-min Rain = 0
KEA1 141506Z 05008KT 05/M02 A3038 RMK A01 T00471017  RH  063%=      5-min Rain = 0
KEA1 141507Z 05007KT 05/M02 A3038 RMK A01 T00481016  RH  063%=      5-min Rain = 0
KEA1 141508Z 05007KT 05/M02 A3038 RMK A01 T00501016  RH  063%=      5-min Rain = 0
KEA1 141509Z 05008KT 05/M02 A3038 RMK A01 T00491017  RH  062%=      5-min Rain = 0
KEA1 141510Z 05009KT 05/M02 A3038 RMK A01 T00481018  RH  062%=      5-min Rain = 0
KEA1 141511Z 05008KT 05/M02 A3038 RMK A01 T00481017  RH  063%=      5-min Rain = 0
KEA1 141512Z 04007KT 05/M02 A3038 RMK A01 T00471017  RH  063%=      5-min Rain = 0
KEA1 141513Z 05007KT 05/M02 A3038 RMK A01 T00481017  RH  063%=      5-min Rain = 0
KEA1 141514Z 05008KT 05/M02 A3038 RMK A01 T00501015  RH  063%=      5-min Rain = 0
KEA1 141515Z 05011KT 05/M02 A3038 RMK A01 T00521015  RH  062%=      5-min Rain = 0
KEA1 141516Z 04010KT 05/M02 A3038 RMK A01 T00511015  RH  063%=      5-min Rain = 0
KEA1 141517Z 05010KT 05/M01 A3038 RMK A01 T00521013  RH  063%=      5-min Rain = 0
KEA1 141518Z 04010KT 05/M01 A3038 RMK A01 T00531013  RH  062%=      5-min Rain = 0
KEA1 141519Z 05010KT 05/M01 A3038 RMK A01 T00521014  RH  062%=      5-min Rain = 0
KEA1 141520Z 06011KT 05/M01 A3038 RMK A01 T00511013  RH  063%=      5-min Rain = 0
KEA1 141521Z 06009KT 05/M01 A3038 RMK A01 T00511012  RH  064%=      5-min Rain = 0
KEA1 141522Z 06010KT 05/M01 A3038 RMK A01 T00521011  RH  064%=      5-min Rain = 0
KEA1 141523Z 05009KT 05/M01 A3038 RMK A01 T00541010  RH  063%=      5-min Rain = 0
KEA1 141524Z 04009KT 06/M01 A3038 RMK A01 T00551011  RH  062%=      5-min Rain = 0
KEA1 141525Z 04009KT 05/M01 A3038 RMK A01 T00541011  RH  063%=      5-min Rain = 0
KEA1 141526Z 05012KT 06/M01 A3038 RMK A01 T00561010  RH  063%=      5-min Rain = 0
KEA1 141527Z 05011KT 05/M01 A3038 RMK A01 T00541011  RH  063%=      5-min Rain = 0
KEA1 141528Z 05012KT 05/M01 A3038 RMK A01 T00541010  RH  063%=      5-min Rain = 0
KEA1 141529Z 06011KT 05/M01 A3038 RMK A01 T00531011  RH  063%=      5-min Rain = 0
KEA1 141530Z 06012KT 05/M01 A3038 RMK A01 T00541009  RH  064%=      5-min Rain = 0
KEA1 141531Z 06010KT 05/M01 A3038 RMK A01 T00541010  RH  063%=      5-min Rain = 0
KEA1 141532Z 06009KT 05/M01 A3038 RMK A01 T00541009  RH  063%=      5-min Rain = 0
KEA1 141533Z 06011KT 06/M01 A3038 RMK A01 T00571008  RH  063%=      5-min Rain = 0
KEA1 141534Z 06008KT 06/M01 A3039 RMK A01 T00571010  RH  062%=      5-min Rain = 0
KEA1 141535Z 06011KT 06/M01 A3039 RMK A01 T00571009  RH  062%=      5-min Rain = 0
KEA1 141536Z 05012KT 06/M01 A3039 RMK A01 T00561010  RH  062%=      5-min Rain = 0
KEA1 141537Z 04012KT 06/M01 A3039 RMK A01 T00551009  RH  064%=      5-min Rain = 0
KEA1 141538Z 05011KT 06/M01 A3039 RMK A01 T00561008  RH  064%=      5-min Rain = 0
KEA1 141539Z 06010KT 06/M01 A3039 RMK A01 T00581008  RH  063%=      5-min Rain = 0
KEA1 141540Z 05012KT 06/M01 A3039 RMK A01 T00571010  RH  062%=      5-min Rain = 0
KEA1 141541Z 04012KT 06/M01 A3039 RMK A01 T00561009  RH  063%=      5-min Rain = 0
KEA1 141542Z 06011KT 06/M01 A3039 RMK A01 T00561008  RH  063%=      5-min Rain = 0
KEA1 141543Z 06009KT 06/M01 A3039 RMK A01 T00571008  RH  063%=      5-min Rain = 0
KEA1 141544Z 05009KT 06/M01 A3039 RMK A01 T00591006  RH  063%=      5-min Rain = 0
KEA1 141545Z 06011KT 06/M01 A3039 RMK A01 T00611006  RH  062%=      5-min Rain = 0
KEA1 141546Z 06010KT 06/M01 A3039 RMK A01 T00611006  RH  062%=      5-min Rain = 0
KEA1 141547Z 06010KT 06/M01 A3039 RMK A01 T00611006  RH  062%=      5-min Rain = 0
KEA1 141548Z 05011KT 06/M01 A3039 RMK A01 T00611006  RH  062%=      5-min Rain = 0
KEA1 141549Z 05011KT 06/M00 A3039 RMK A01 T00611004  RH  063%=      5-min Rain = 0
KEA1 141550Z 06013KT 06/M00 A3039 RMK A01 T00621004  RH  063%=      5-min Rain = 0
KEA1 141551Z 06014KT 06/M00 A3039 RMK A01 T00621004  RH  063%=      5-min Rain = 0
KEA1 141552Z 06013KT 06/M00 A3039 RMK A01 T00601004  RH  063%=      5-min Rain = 0
KEA1 141553Z 07010KT 06/M00 A304 RMK A01 T00621002  RH  064%=      5-min Rain = 0
KEA1 141554Z 07010KT 06/M00 A304 RMK A01 T00641002  RH  063%=      5-min Rain = 0
KEA1 141555Z 05011KT 06/M00 A304 RMK A01 T00641002  RH  063%=      5-min Rain = 0
KEA1 141556Z 04013KT 07/M00 A304 RMK A01 T00661002  RH  062%=      5-min Rain = 0
KEA1 141557Z 04015KT 07/M00 A304 RMK A01 T00651003  RH  062%=      5-min Rain = 0
KEA1 141558Z 05013KT 06/M00 A304 RMK A01 T00641004  RH  062%=      5-min Rain = 0
KEA1 141559Z 05015KT 06/M00 A304 RMK A01 T00631003  RH  062%=      5-min Rain = 0
KEA1 141600Z 04014KT 06/M00 A304 RMK A01 T00641004  RH  062%=      5-min Rain = 0
KEA1 141601Z 06012KT 06/M00 A304 RMK A01 T00641003  RH  062%=      5-min Rain = 0
KEA1 141602Z 06012KT 07/M00 A304 RMK A01 T00651003  RH  062%=      5-min Rain = 0
KEA1 141603Z 07010KT 07/M00 A304 RMK A01 T00651004  RH  061%=      5-min Rain = 0
KEA1 141604Z 08010KT 07/M00 A304 RMK A01 T00661003  RH  062%=      5-min Rain = 0
KEA1 141605Z 07010KT 07/M01 A304 RMK A01 T00661005  RH  061%=      5-min Rain = 0
KEA1 141606Z 07010KT 06/M01 A304 RMK A01 T00631005  RH  062%=      5-min Rain = 0
KEA1 141607Z 06010KT 07/M00 A304 RMK A01 T00661004  RH  061%=      5-min Rain = 0
KEA1 141608Z 08010KT 07/M00 A304 RMK A01 T00671003  RH  061%=      5-min Rain = 0
KEA1 141609Z 07009KT 07/M00 A304 RMK A01 T00681004  RH  060%=      5-min Rain = 0
KEA1 141610Z 07009KT 07/M00 A304 RMK A01 T00691004  RH  060%=      5-min Rain = 0
KEA1 141611Z 05011KT 07/M00 A304 RMK A01 T00691003  RH  060%=      5-min Rain = 0
KEA1 141612Z 05011KT 07/M01 A304 RMK A01 T00681005  RH  060%=      5-min Rain = 0
KEA1 141613Z 05008KT 07/M01 A304 RMK A01 T00651006  RH  061%=      5-min Rain = 0
KEA1 141614Z 07009KT 07/M00 A304 RMK A01 T00651003  RH  061%=      5-min Rain = 0
KEA1 141615Z 07012KT 07/M00 A304 RMK A01 T00681002  RH  061%=      5-min Rain = 0
KEA1 141616Z 06012KT 07/M00 A304 RMK A01 T00691003  RH  060%=      5-min Rain = 0
KEA1 141617Z 06010KT 07/M00 A304 RMK A01 T00691002  RH  061%=      5-min Rain = 0
KEA1 141618Z 06010KT 07/00 A3041 RMK A01 T00720001  RH  060%=      5-min Rain = 0
KEA1 141619Z 04012KT 07/00 A304 RMK A01 T00740000  RH  060%=      5-min Rain = 0
KEA1 141620Z 05011KT 07/M00 A304 RMK A01 T00731001  RH  059%=      5-min Rain = 0
KEA1 141621Z 05013KT 07/M00 A304 RMK A01 T00701002  RH  060%=      5-min Rain = 0
KEA1 141622Z 06012KT 07/00 A304 RMK A01 T007000-0  RH  061%=      5-min Rain = 0
KEA1 141623Z 06011KT 07/00 A304 RMK A01 T00710001  RH  061%=      5-min Rain = 0
KEA1 141624Z 06011KT 07/00 A304 RMK A01 T00730001  RH  061%=      5-min Rain = 0
KEA1 141625Z 07013G18KT 07/00 A3041 RMK A01 T00740002  RH  060%=      5-min Rain = 0
KEA1 141626Z 06013G18KT 08/00 A3041 RMK A01 T00750001  RH  060%=      5-min Rain = 0
KEA1 141627Z 07014KT 07/00 A3041 RMK A01 T00740000  RH  059%=      5-min Rain = 0
KEA1 141628Z 06011KT 07/00 A3041 RMK A01 T00720000  RH  060%=      5-min Rain = 0
KEA1 141629Z 04012KT 07/00 A3041 RMK A01 T00730001  RH  060%=      5-min Rain = 0
KEA1 141630Z 06011KT 08/00 A3041 RMK A01 T00760002  RH  060%=      5-min Rain = 0
KEA1 141631Z 06014KT 08/00 A3041 RMK A01 T00780002  RH  059%=      5-min Rain = 0
KEA1 141632Z 06016KT 08/00 A3041 RMK A01 T00770000  RH  058%=      5-min Rain = 0
KEA1 141633Z 06013KT 08/00 A3041 RMK A01 T00750000  RH  059%=      5-min Rain = 0
KEA1 141634Z 06012KT 08/00 A3041 RMK A01 T00750000  RH  059%=      5-min Rain = 0
KEA1 141635Z 06014KT 08/00 A3041 RMK A01 T00760001  RH  059%=      5-min Rain = 0
KEA1 141636Z 07011KT 08/00 A3041 RMK A01 T00770001  RH  059%=      5-min Rain = 0
KEA1 141637Z 07012KT 08/00 A3041 RMK A01 T00760001  RH  059%=      5-min Rain = 0
KEA1 141638Z 05014KT 08/00 A3041 RMK A01 T00770001  RH  058%=      5-min Rain = 0
KEA1 141639Z 04011KT 08/00 A3041 RMK A01 T00780001  RH  058%=      5-min Rain = 0
KEA1 141640Z 06012KT 08/00 A3041 RMK A01 T00780001  RH  058%=      5-min Rain = 0
KEA1 141641Z 07014KT 08/00 A3041 RMK A01 T00790001  RH  058%=      5-min Rain = 0
KEA1 141642Z 06015KT 08/00 A3041 RMK A01 T00800001  RH  057%=      5-min Rain = 0
KEA1 141643Z 06015KT 08/00 A3041 RMK A01 T00800001  RH  057%=      5-min Rain = 0
KEA1 141644Z 06013KT 08/00 A3041 RMK A01 T00790000  RH  057%=      5-min Rain = 0
KEA1 141645Z 05014KT 08/00 A3041 RMK A01 T00780000  RH  058%=      5-min Rain = 0
KEA1 141646Z 05012KT 08/00 A3041 RMK A01 T00780000  RH  058%=      5-min Rain = 0
KEA1 141647Z 06014KT 08/00 A3041 RMK A01 T00780000  RH  058%=      5-min Rain = 0
KEA1 141648Z 07014KT 08/00 A3041 RMK A01 T00790001  RH  058%=      5-min Rain = 0
KEA1 141649Z 08014KT 08/00 A3041 RMK A01 T00800000  RH  057%=      5-min Rain = 0
KEA1 141650Z 08013KT 08/00 A3041 RMK A01 T00790000  RH  057%=      5-min Rain = 0
KEA1 141651Z 06015KT 08/00 A3041 RMK A01 T00810002  RH  057%=      5-min Rain = 0
KEA1 141652Z 06013KT 08/00 A3041 RMK A01 T00810000  RH  057%=      5-min Rain = 0
KEA1 141653Z 06012KT 08/00 A3041 RMK A01 T00800000  RH  057%=      5-min Rain = 0
KEA1 141654Z 07010KT 08/00 A3041 RMK A01 T00790001  RH  058%=      5-min Rain = 0
KEA1 141655Z 07013KT 08/00 A3041 RMK A01 T00830004  RH  057%=      5-min Rain = 0
KEA1 141656Z 06014KT 09/00 A3041 RMK A01 T00870003  RH  056%=      5-min Rain = 0
KEA1 141657Z 07013KT 08/00 A3042 RMK A01 T00840001  RH  056%=      5-min Rain = 0
KEA1 141658Z 06013KT 08/00 A3042 RMK A01 T00830001  RH  056%=      5-min Rain = 0
KEA1 141659Z 06009KT 08/00 A3042 RMK A01 T00830001  RH  057%=      5-min Rain = 0
KEA1 141700Z 06013KT 09/00 A3042 RMK A01 T00850004  RH  056%=      5-min Rain = 0
KEA1 141701Z 07011KT 09/00 A3042 RMK A01 T00860003  RH  056%=      5-min Rain = 0
KEA1 141702Z 07012KT 09/01 A3042 RMK A01 T00910005  RH  055%=      5-min Rain = 0
KEA1 141703Z 07013KT 09/00 A3042 RMK A01 T00920004  RH  054%=      5-min Rain = 0
KEA1 141704Z 05014KT 09/00 A3042 RMK A01 T00890001  RH  054%=      5-min Rain = 0
KEA1 141705Z 07011KT 09/00 A3042 RMK A01 T00880002  RH  055%=      5-min Rain = 0
KEA1 141706Z 07013KT 09/00 A3042 RMK A01 T00920004  RH  054%=      5-min Rain = 0
KEA1 141707Z 06013KT 09/00 A3042 RMK A01 T00900002  RH  054%=      5-min Rain = 0
KEA1 141708Z 08012KT 09/00 A3042 RMK A01 T00860001  RH  055%=      5-min Rain = 0
KEA1 141709Z 07014KT 09/00 A3042 RMK A01 T00880003  RH  055%=      5-min Rain = 0
KEA1 141710Z 06012KT 09/00 A3042 RMK A01 T00870001  RH  055%=      5-min Rain = 0
KEA1 141711Z 06015KT 09/00 A3042 RMK A01 T00860002  RH  056%=      5-min Rain = 0
KEA1 141712Z 07012KT 09/00 A3042 RMK A01 T00850001  RH  056%=      5-min Rain = 0
KEA1 141713Z 06010KT 08/00 A3042 RMK A01 T00840001  RH  056%=      5-min Rain = 0
KEA1 141714Z 06008KT 09/00 A3042 RMK A01 T00850003  RH  057%=      5-min Rain = 0
KEA1 141715Z 07012KT 09/01 A3042 RMK A01 T00900005  RH  055%=      5-min Rain = 0
KEA1 141716Z 06011KT 09/00 A3042 RMK A01 T00890003  RH  055%=      5-min Rain = 0
KEA1 141717Z 06015KT 09/00 A3042 RMK A01 T00900003  RH  055%=      5-min Rain = 0
KEA1 141718Z 06012KT 09/00 A3042 RMK A01 T00900002  RH  054%=      5-min Rain = 0
KEA1 141719Z 06014KT 09/00 A3042 RMK A01 T00910003  RH  054%=      5-min Rain = 0
KEA1 141720Z 06013KT 09/00 A3042 RMK A01 T00910003  RH  054%=      5-min Rain = 0
KEA1 141721Z 07013KT 09/00 A3042 RMK A01 T00900002  RH  054%=      5-min Rain = 0
KEA1 141722Z 07014KT 09/00 A3042 RMK A01 T00910002  RH  054%=      5-min Rain = 0
KEA1 141723Z 05012KT 09/00 A3042 RMK A01 T00910002  RH  054%=      5-min Rain = 0
KEA1 141724Z 05010KT 09/00 A3042 RMK A01 T00910003  RH  054%=      5-min Rain = 0
KEA1 141725Z 06013KT 09/00 A3042 RMK A01 T00940004  RH  054%=      5-min Rain = 0
KEA1 141726Z 07012KT 09/00 A3042 RMK A01 T00940003  RH  053%=      5-min Rain = 0
KEA1 141727Z 07017KT 09/00 A3042 RMK A01 T00910002  RH  053%=      5-min Rain = 0
KEA1 141728Z 08011KT 09/00 A3042 RMK A01 T00900003  RH  054%=      5-min Rain = 0
KEA1 141729Z 07011KT 09/00 A3042 RMK A01 T00910003  RH  054%=      5-min Rain = 0
KEA1 141730Z 07011KT 09/00 A3042 RMK A01 T00920003  RH  054%=      5-min Rain = 0
KEA1 141731Z 06009KT 09/01 A3042 RMK A01 T00940005  RH  054%=      5-min Rain = 0
KEA1 141732Z 07011G16KT 10/01 A3042 RMK A01 T00990007  RH  053%=      5-min Rain = 0
KEA1 141733Z 07014KT 10/01 A3042 RMK A01 T01000005  RH  051%=      5-min Rain = 0
KEA1 141734Z 06011KT 10/00 A3042 RMK A01 T00970004  RH  052%=      5-min Rain = 0
KEA1 141735Z 05011KT 10/01 A3042 RMK A01 T00980005  RH  053%=      5-min Rain = 0
KEA1 141736Z 05012KT 10/00 A3042 RMK A01 T00960003  RH  052%=      5-min Rain = 0
KEA1 141737Z 06011KT 09/00 A3042 RMK A01 T00920002  RH  053%=      5-min Rain = 0
KEA1 141738Z 07011KT 09/00 A3042 RMK A01 T00930004  RH  054%=      5-min Rain = 0
KEA1 141739Z 07013KT 09/00 A3042 RMK A01 T00940004  RH  053%=      5-min Rain = 0
KEA1 141740Z 06011KT 09/00 A3042 RMK A01 T00940003  RH  053%=      5-min Rain = 0
KEA1 141741Z 05009KT 09/00 A3041 RMK A01 T00930002  RH  053%=      5-min Rain = 0
KEA1 141742Z 07009KT 09/00 A3041 RMK A01 T00910003  RH  054%=      5-min Rain = 0
KEA1 141743Z 04010KT 09/01 A3041 RMK A01 T00940006  RH  054%=      5-min Rain = 0
KEA1 141744Z 04010KT 10/01 A3041 RMK A01 T00980005  RH  053%=      5-min Rain = 0
KEA1 141745Z 04010KT 10/01 A3041 RMK A01 T00990005  RH  052%=      5-min Rain = 0
KEA1 141746Z 03010KT 10/00 A3041 RMK A01 T00980004  RH  052%=      5-min Rain = 0
KEA1 141747Z 04013KT 10/01 A3041 RMK A01 T00980005  RH  052%=      5-min Rain = 0
KEA1 141748Z 04014KT 10/00 A3041 RMK A01 T00970004  RH  052%=      5-min Rain = 0
KEA1 141749Z 04012KT 10/00 A3041 RMK A01 T00950003  RH  053%=      5-min Rain = 0
KEA1 141750Z 04010KT 10/00 A3041 RMK A01 T00950004  RH  053%=      5-min Rain = 0
KEA1 141751Z 05007KT 10/00 A3041 RMK A01 T00960004  RH  053%=      5-min Rain = 0
KEA1 141752Z 05008KT 10/01 A3041 RMK A01 T00990006  RH  052%=      5-min Rain = 0
KEA1 141753Z 06010KT 10/01 A3041 RMK A01 T01020007  RH  052%=      5-min Rain = 0
KEA1 141754Z 07013KT 10/01 A3041 RMK A01 T01040006  RH  051%=      5-min Rain = 0
KEA1 141755Z 06012KT 10/00 A3041 RMK A01 T01030004  RH  050%=      5-min Rain = 0
KEA1 141756Z 06011KT 10/00 A3041 RMK A01 T01000003  RH  051%=      5-min Rain = 0
KEA1 141757Z 05011KT 10/00 A3041 RMK A01 T00980003  RH  052%=      5-min Rain = 0
KEA1 141758Z 07010KT 10/01 A3041 RMK A01 T01000005  RH  052%=      5-min Rain = 0
KEA1 141759Z 07008KT 10/00 A3041 RMK A01 T01000003  RH  051%=      5-min Rain = 0
KEA1 141800Z 06007KT 10/00 A3041 RMK A01 T00970003  RH  052%=      5-min Rain = 0
KEA1 141801Z 07010KT 10/00 A3041 RMK A01 T00970004  RH  052%=      5-min Rain = 0
KEA1 141802Z 07009KT 10/00 A3041 RMK A01 T01000004  RH  051%=      5-min Rain = 0
KEA1 141803Z 06011KT 10/00 A3041 RMK A01 T00990003  RH  051%=      5-min Rain = 0
KEA1 141804Z 05011KT 10/00 A3041 RMK A01 T00980004  RH  052%=      5-min Rain = 0
KEA1 141805Z 05008KT 10/00 A3041 RMK A01 T01000004  RH  051%=      5-min Rain = 0
KEA1 141806Z 04008KT 10/00 A3041 RMK A01 T01010004  RH  051%=      5-min Rain = 0
KEA1 141807Z 05007KT 10/01 A3041 RMK A01 T01010005  RH  051%=      5-min Rain = 0
KEA1 141808Z 05011KT 10/01 A3041 RMK A01 T01030005  RH  051%=      5-min Rain = 0
KEA1 141809Z 04011KT 10/00 A3041 RMK A01 T01010002  RH  050%=      5-min Rain = 0
KEA1 141810Z 04011KT 10/00 A304 RMK A01 T00990001  RH  051%=      5-min Rain = 0
KEA1 141811Z 06008KT 10/00 A304 RMK A01 T00970001  RH  051%=      5-min Rain = 0
KEA1 141812Z 10008KT 10/00 A304 RMK A01 T00980003  RH  052%=      5-min Rain = 0
KEA1 141813Z 10007KT 10/00 A304 RMK A01 T01010003  RH  051%=      5-min Rain = 0
KEA1 141814Z 07007KT 10/00 A304 RMK A01 T01000002  RH  051%=      5-min Rain = 0
KEA1 141815Z 07009KT 10/00 A304 RMK A01 T01000004  RH  051%=      5-min Rain = 0
KEA1 141816Z 08008KT 10/01 A304 RMK A01 T01020005  RH  051%=      5-min Rain = 0
KEA1 141817Z 08007KT 10/00 A304 RMK A01 T01020003  RH  050%=      5-min Rain = 0
KEA1 141818Z 07004KT 10/00 A304 RMK A01 T00990002  RH  051%=      5-min Rain = 0
KEA1 141819Z 04005KT 10/01 A304 RMK A01 T01000005  RH  052%=      5-min Rain = 0
KEA1 141820Z 04007KT 10/01 A304 RMK A01 T01040005  RH  050%=      5-min Rain = 0
KEA1 141821Z 04011KT 11/00 A304 RMK A01 T01060004  RH  049%=      5-min Rain = 0
KEA1 141822Z 03010KT 11/00 A304 RMK A01 T01050003  RH  049%=      5-min Rain = 0
KEA1 141823Z 01008KT 11/00 A304 RMK A01 T01050003  RH  049%=      5-min Rain = 0
KEA1 141824Z 03006KT 11/00 A304 RMK A01 T01060004  RH  049%=      5-min Rain = 0
KEA1 141825Z 03006KT 11/00 A304 RMK A01 T01070003  RH  049%=      5-min Rain = 0
KEA1 141826Z 08006KT 11/00 A304 RMK A01 T01060003  RH  049%=      5-min Rain = 0
KEA1 141827Z 07009KT 11/00 A304 RMK A01 T01070004  RH  049%=      5-min Rain = 0
KEA1 141828Z 08009KT 11/00 A304 RMK A01 T01080003  RH  048%=      5-min Rain = 0
KEA1 141829Z 08006KT 10/00 A304 RMK A01 T01030000  RH  049%=      5-min Rain = 0
KEA1 141830Z 08006KT 10/00 A304 RMK A01 T01010002  RH  050%=      5-min Rain = 0
KEA1 141831Z 08007KT 10/00 A304 RMK A01 T01020002  RH  050%=      5-min Rain = 0
KEA1 141832Z 05012KT 10/00 A3039 RMK A01 T01030001  RH  049%=      5-min Rain = 0
KEA1 141833Z 05012KT 11/00 A3039 RMK A01 T01050000  RH  048%=      5-min Rain = 0
KEA1 141834Z 05011KT 10/00 A3039 RMK A01 T010300-0  RH  049%=      5-min Rain = 0
KEA1 141835Z 03008KT 10/00 A3039 RMK A01 T01020001  RH  049%=      5-min Rain = 0
KEA1 141836Z 03008KT 11/00 A3039 RMK A01 T01070003  RH  049%=      5-min Rain = 0
KEA1 141837Z 05008KT 11/00 A3039 RMK A01 T01060000  RH  048%=      5-min Rain = 0
KEA1 141838Z 06012KT 11/00 A3039 RMK A01 T01060002  RH  049%=      5-min Rain = 0
KEA1 141839Z 04011KT 11/00 A3039 RMK A01 T01060001  RH  048%=      5-min Rain = 0
KEA1 141840Z 05010KT 11/00 A3039 RMK A01 T01050001  RH  049%=      5-min Rain = 0
KEA1 141841Z 05012KT 11/00 A3039 RMK A01 T01060001  RH  048%=      5-min Rain = 0
KEA1 141842Z 04009KT 11/00 A3039 RMK A01 T010700-0  RH  048%=      5-min Rain = 0
KEA1 141843Z 04008KT 11/00 A3039 RMK A01 T01070000  RH  048%=      5-min Rain = 0
KEA1 141844Z 03007KT 11/00 A3039 RMK A01 T01080001  RH  047%=      5-min Rain = 0
KEA1 141845Z 05006KT 11/00 A3039 RMK A01 T01070001  RH  048%=      5-min Rain = 0
KEA1 141846Z 06008KT 11/00 A3039 RMK A01 T01070002  RH  048%=      5-min Rain = 0
KEA1 141847Z 04008KT 11/00 A3039 RMK A01 T01090002  RH  048%=      5-min Rain = 0
KEA1 141848Z 03012KT 11/00 A3039 RMK A01 T01090001  RH  047%=      5-min Rain = 0
KEA1 141849Z 04009KT 11/M00 A3039 RMK A01 T01101001  RH  046%=      5-min Rain = 0
KEA1 141850Z 06009KT 11/00 A3039 RMK A01 T01140003  RH  046%=      5-min Rain = 0
KEA1 141851Z 05010KT 12/00 A3039 RMK A01 T01180003  RH  045%=      5-min Rain = 0
KEA1 141852Z 06006KT 11/M00 A3039 RMK A01 T01111002  RH  046%=      5-min Rain = 0
KEA1 141853Z 07006KT 11/00 A3039 RMK A01 T01090002  RH  047%=      5-min Rain = 0
KEA1 141854Z 07005KT 11/00 A3039 RMK A01 T01140002  RH  046%=      5-min Rain = 0
KEA1 141855Z 09004KT 11/00 A3039 RMK A01 T01120000  RH  046%=      5-min Rain = 0
KEA1 141856Z 05005KT 11/00 A3039 RMK A01 T01100001  RH  047%=      5-min Rain = 0
KEA1 141857Z 02006KT 11/00 A3038 RMK A01 T01110002  RH  047%=      5-min Rain = 0
KEA1 141858Z 05010KT 11/00 A3038 RMK A01 T01120002  RH  047%=      5-min Rain = 0
KEA1 141859Z 06007KT 11/00 A3038 RMK A01 T01110000  RH  046%=      5-min Rain = 0
KEA1 141900Z 04008KT 11/00 A3038 RMK A01 T010900-0  RH  047%=      5-min Rain = 0
KEA1 141901Z 04010KT 11/00 A3038 RMK A01 T01140002  RH  046%=      5-min Rain = 0
KEA1 141902Z 03009KT 12/00 A3038 RMK A01 T01150001  RH  045%=      5-min Rain = 0
KEA1 141903Z 06008KT 12/00 A3038 RMK A01 T01150000  RH  045%=      5-min Rain = 0
KEA1 141904Z 07010KT 11/00 A3038 RMK A01 T011400-0  RH  045%=      5-min Rain = 0
KEA1 141905Z 07009KT 11/00 A3038 RMK A01 T01140000  RH  046%=      5-min Rain = 0
KEA1 141906Z 06011KT 11/M00 A3038 RMK A01 T01141001  RH  045%=      5-min Rain = 0
KEA1 141907Z 04010KT 11/M00 A3038 RMK A01 T01131002  RH  045%=      5-min Rain = 0
KEA1 141908Z 04008KT 11/M00 A3038 RMK A01 T01101004  RH  045%=      5-min Rain = 0
KEA1 141909Z 06006KT 11/M00 A3038 RMK A01 T01071004  RH  046%=      5-min Rain = 0
KEA1 141910Z 05006KT 11/M00 A3038 RMK A01 T01071002  RH  047%=      5-min Rain = 0
KEA1 141911Z 05007KT 11/M00 A3038 RMK A01 T01091001  RH  046%=      5-min Rain = 0
KEA1 141912Z 05008KT 11/00 A3038 RMK A01 T011100-0  RH  046%=      5-min Rain = 0
KEA1 141913Z 05010KT 11/00 A3038 RMK A01 T011200-0  RH  046%=      5-min Rain = 0
KEA1 141914Z 03011KT 12/M00 A3038 RMK A01 T01151002  RH  045%=      5-min Rain = 0
KEA1 141915Z 05010KT 11/M00 A3038 RMK A01 T01141003  RH  044%=      5-min Rain = 0
KEA1 141916Z 04010KT 12/M00 A3038 RMK A01 T01151002  RH  044%=      5-min Rain = 0
KEA1 141917Z 03007KT 11/M00 A3038 RMK A01 T01141003  RH  044%=      5-min Rain = 0
KEA1 141918Z 04008KT 11/M00 A3038 RMK A01 T01141002  RH  045%=      5-min Rain = 0
KEA1 141919Z 05008KT 11/M00 A3038 RMK A01 T01131003  RH  045%=      5-min Rain = 0
KEA1 141920Z 04007KT 11/M00 A3038 RMK A01 T01131002  RH  045%=      5-min Rain = 0
KEA1 141921Z 02009KT 11/M00 A3038 RMK A01 T01131002  RH  045%=      5-min Rain = 0
KEA1 141922Z 07008G13KT 12/M00 A3038 RMK A01 T01151001  RH  045%=      5-min Rain = 0
KEA1 141923Z 07007KT 12/M00 A3038 RMK A01 T01151001  RH  045%=      5-min Rain = 0
KEA1 141924Z 07011G16KT 11/M00 A3038 RMK A01 T01141001  RH  045%=      5-min Rain = 0
KEA1 141925Z 08012KT 12/M00 A3038 RMK A01 T01171001  RH  044%=      5-min Rain = 0
KEA1 141926Z 08010KT 11/M00 A3038 RMK A01 T01141003  RH  044%=      5-min Rain = 0
KEA1 141927Z 08009KT 11/M00 A3038 RMK A01 T01121003  RH  045%=      5-min Rain = 0
KEA1 141928Z 08007KT 11/M00 A3038 RMK A01 T01121003  RH  045%=      5-min Rain = 0
KEA1 141929Z 07004KT 11/M00 A3038 RMK A01 T01131003  RH  045%=      5-min Rain = 0
KEA1 141930Z 05006KT 11/M00 A3038 RMK A01 T01131003  RH  045%=      5-min Rain = 0
KEA1 141931Z 09006KT 11/M00 A3038 RMK A01 T01131002  RH  045%=      5-min Rain = 0
KEA1 141932Z 09006KT 11/M00 A3038 RMK A01 T01141003  RH  044%=      5-min Rain = 0
KEA1 141933Z 10004KT 11/M00 A3038 RMK A01 T01141003  RH  044%=      5-min Rain = 0
KEA1 141934Z 09005KT 12/M00 A3038 RMK A01 T01181001  RH  044%=      5-min Rain = 0
KEA1 141935Z 05007G12KT 12/M00 A3037 RMK A01 T01201001  RH  043%=      5-min Rain = 0
KEA1 141936Z 08011KT 12/M00 A3037 RMK A01 T01201002  RH  043%=      5-min Rain = 0
KEA1 141937Z 07010KT 12/M00 A3037 RMK A01 T01201004  RH  042%=      5-min Rain = 0
KEA1 141938Z 07011KT 12/M00 A3037 RMK A01 T01181004  RH  043%=      5-min Rain = 0
KEA1 141939Z 06010KT 12/M00 A3037 RMK A01 T01171004  RH  043%=      5-min Rain = 0
KEA1 141940Z 05009KT 12/M00 A3037 RMK A01 T01181003  RH  043%=      5-min Rain = 0
KEA1 141941Z 07008KT 12/M00 A3037 RMK A01 T01201003  RH  043%=      5-min Rain = 0
KEA1 141942Z 06009KT 12/M00 A3037 RMK A01 T01171004  RH  043%=      5-min Rain = 0
KEA1 141943Z 06006KT 12/M00 A3037 RMK A01 T01161004  RH  043%=      5-min Rain = 0
KEA1 141944Z 06004KT 11/M01 A3037 RMK A01 T01121006  RH  044%=      5-min Rain = 0
KEA1 141945Z 04004KT 11/M01 A3037 RMK A01 T01111005  RH  045%=      5-min Rain = 0
KEA1 141946Z 07002KT 11/M01 A3037 RMK A01 T01101005  RH  045%=      5-min Rain = 0
KEA1 141947Z 04003KT 11/M01 A3037 RMK A01 T01111005  RH  045%=      5-min Rain = 0
KEA1 141948Z 03006KT 11/M00 A3037 RMK A01 T01141002  RH  045%=      5-min Rain = 0
KEA1 141949Z 02010KT 12/M00 A3037 RMK A01 T01181002  RH  044%=      5-min Rain = 0
KEA1 141950Z 00007KT 12/M00 A3037 RMK A01 T01191003  RH  043%=      5-min Rain = 0
KEA1 141951Z 36005KT 12/M01 A3037 RMK A01 T01151006  RH  043%=      5-min Rain = 0
KEA1 141952Z 03004KT 11/M01 A3037 RMK A01 T01131006  RH  044%=      5-min Rain = 0
KEA1 141953Z 04007KT 11/M00 A3037 RMK A01 T01141004  RH  044%=      5-min Rain = 0
KEA1 141954Z 08005KT 12/M00 A3037 RMK A01 T01161004  RH  043%=      5-min Rain = 0
KEA1 141955Z 07007KT 12/M00 A3037 RMK A01 T01161004  RH  044%=      5-min Rain = 0
KEA1 141956Z 09006KT 12/M00 A3037 RMK A01 T01181004  RH  043%=      5-min Rain = 0
KEA1 141957Z 09007KT 12/M01 A3037 RMK A01 T01171005  RH  043%=      5-min Rain = 0
KEA1 141958Z 09006KT 12/M00 A3037 RMK A01 T01171004  RH  043%=      5-min Rain = 0
KEA1 141959Z 06007KT 12/M00 A3037 RMK A01 T01181004  RH  043%=      5-min Rain = 0
KEA1 142000Z 04008KT 12/M00 A3037 RMK A01 T01201004  RH  043%=      5-min Rain = 0
KEA1 142001Z 05009KT 12/M00 A3037 RMK A01 T01181004  RH  043%=      5-min Rain = 0
KEA1 142002Z 07008KT 12/M01 A3037 RMK A01 T01171005  RH  043%=      5-min Rain = 0
KEA1 142003Z 04006KT 12/M00 A3037 RMK A01 T01161004  RH  043%=      5-min Rain = 0
KEA1 142004Z 07006KT 12/M00 A3037 RMK A01 T01181003  RH  043%=      5-min Rain = 0
KEA1 142005Z 09005KT 12/M00 A3037 RMK A01 T01201002  RH  043%=      5-min Rain = 0
KEA1 142006Z 09007KT 13/M00 A3037 RMK A01 T01251002  RH  042%=      5-min Rain = 0
KEA1 142007Z 09005KT 12/M01 A3037 RMK A01 T01221007  RH  041%=      5-min Rain = 0
KEA1 142008Z 06005KT 12/M01 A3036 RMK A01 T01181008  RH  042%=      5-min Rain = 0
KEA1 142009Z 07006KT 12/M01 A3036 RMK A01 T01171007  RH  042%=      5-min Rain = 0
KEA1 142010Z 11006KT 12/M01 A3036 RMK A01 T01181006  RH  042%=      5-min Rain = 0
KEA1 142011Z 12006KT 12/M01 A3036 RMK A01 T01191007  RH  042%=      5-min Rain = 0
KEA1 142012Z 10006KT 12/M01 A3036 RMK A01 T01221005  RH  041%=      5-min Rain = 0
KEA1 142013Z 07007KT 12/M01 A3036 RMK A01 T01241007  RH  040%=      5-min Rain = 0
KEA1 142014Z 10006KT 12/M01 A3036 RMK A01 T01231007  RH  041%=      5-min Rain = 0
KEA1 142015Z 11005KT 12/M01 A3036 RMK A01 T01241006  RH  041%=      5-min Rain = 0
KEA1 142016Z 09004KT 12/M01 A3036 RMK A01 T01241008  RH  040%=      5-min Rain = 0
KEA1 142017Z 10007KT 12/M01 A3036 RMK A01 T01211009  RH  041%=      5-min Rain = 0
KEA1 142018Z 08011KT 12/M01 A3036 RMK A01 T01231007  RH  041%=      5-min Rain = 0
KEA1 142019Z 09007KT 12/M01 A3036 RMK A01 T01231008  RH  040%=      5-min Rain = 0
KEA1 142020Z 06009KT 12/M01 A3036 RMK A01 T01241008  RH  040%=      5-min Rain = 0
KEA1 142021Z 06006KT 12/M01 A3036 RMK A01 T01201010  RH  041%=      5-min Rain = 0
KEA1 142022Z 09006KT 12/M01 A3036 RMK A01 T01181008  RH  042%=      5-min Rain = 0
KEA1 142023Z 09006KT 12/M01 A3036 RMK A01 T01201009  RH  041%=      5-min Rain = 0
KEA1 142024Z 09007KT 12/M01 A3036 RMK A01 T01201009  RH  041%=      5-min Rain = 0
KEA1 142025Z 10006KT 12/M01 A3036 RMK A01 T01191009  RH  041%=      5-min Rain = 0
KEA1 142026Z 10008KT 12/M01 A3036 RMK A01 T01181010  RH  041%=      5-min Rain = 0
KEA1 142027Z 08007KT 12/M01 A3036 RMK A01 T01181009  RH  041%=      5-min Rain = 0
KEA1 142028Z 09005KT 12/M01 A3036 RMK A01 T01201008  RH  041%=      5-min Rain = 0
KEA1 142029Z 09004KT 12/M01 A3036 RMK A01 T01241007  RH  040%=      5-min Rain = 0
KEA1 142030Z 08004KT 12/M01 A3036 RMK A01 T01241009  RH  040%=      5-min Rain = 0
KEA1 142031Z 06006KT 12/M01 A3036 RMK A01 T01241009  RH  040%=      5-min Rain = 0
KEA1 142032Z 08006KT 12/M01 A3036 RMK A01 T01231008  RH  040%=      5-min Rain = 0
KEA1 142033Z 07009KT 12/M01 A3036 RMK A01 T01231009  RH  040%=      5-min Rain = 0
KEA1 142034Z 06010KT 12/M01 A3036 RMK A01 T01221009  RH  040%=      5-min Rain = 0
KEA1 142035Z 05006KT 12/M01 A3036 RMK A01 T01201011  RH  040%=      5-min Rain = 0
KEA1 142036Z 02005KT 12/M01 A3036 RMK A01 T01171011  RH  041%=      5-min Rain = 0
KEA1 142037Z 03004KT 12/M01 A3036 RMK A01 T01181009  RH  041%=      5-min Rain = 0
KEA1 142038Z 09006KT 12/M01 A3036 RMK A01 T01191009  RH  041%=      5-min Rain = 0
KEA1 142039Z 10004KT 12/M01 A3036 RMK A01 T01191009  RH  041%=      5-min Rain = 0
KEA1 142040Z 06007KT 12/M01 A3036 RMK A01 T01201008  RH  041%=      5-min Rain = 0
KEA1 142041Z 06005KT 12/M01 A3036 RMK A01 T01221009  RH  040%=      5-min Rain = 0
KEA1 142042Z 07010KT 12/M01 A3036 RMK A01 T01221010  RH  040%=      5-min Rain = 0
KEA1 142043Z 06010KT 12/M01 A3036 RMK A01 T01221010  RH  040%=      5-min Rain = 0
KEA1 142044Z 05008KT 12/M01 A3036 RMK A01 T01211010  RH  040%=      5-min Rain = 0
KEA1 142045Z 04006KT 12/M01 A3036 RMK A01 T01201011  RH  040%=      5-min Rain = 0
KEA1 142046Z 03008KT 12/M01 A3036 RMK A01 T01191010  RH  041%=      5-min Rain = 0
KEA1 142047Z 03007KT 12/M01 A3036 RMK A01 T01181011  RH  041%=      5-min Rain = 0
KEA1 142048Z 05006KT 12/M01 A3036 RMK A01 T01171011  RH  041%=      5-min Rain = 0
KEA1 142049Z 06008KT 12/M01 A3036 RMK A01 T01191009  RH  041%=      5-min Rain = 0
KEA1 142050Z 05010KT 12/M01 A3036 RMK A01 T01211010  RH  040%=      5-min Rain = 0
KEA1 142051Z 06007KT 12/M01 A3036 RMK A01 T01181012  RH  041%=      5-min Rain = 0
KEA1 142052Z 06003KT 12/M01 A3036 RMK A01 T01151012  RH  041%=      5-min Rain = 0
KEA1 142053Z 09003KT 12/M01 A3036 RMK A01 T01161011  RH  041%=      5-min Rain = 0
KEA1 142054Z 09002KT 12/M01 A3036 RMK A01 T01161012  RH  041%=      5-min Rain = 0
KEA1 142055Z 13002KT 12/M01 A3036 RMK A01 T01161012  RH  041%=      5-min Rain = 0
KEA1 142056Z 17001KT 12/M01 A3036 RMK A01 T01181011  RH  041%=      5-min Rain = 0
KEA1 142057Z 13004KT 12/M01 A3036 RMK A01 T01211010  RH  040%=      5-min Rain = 0
KEA1 142058Z 09007KT 12/M01 A3036 RMK A01 T01221009  RH  040%=      5-min Rain = 0
KEA1 142059Z 07008KT 13/M01 A3036 RMK A01 T01251008  RH  040%=      5-min Rain = 0
KEA1 142100Z 07004KT 13/M01 A3036 RMK A01 T01261008  RH  040%=      5-min Rain = 0
KEA1 142101Z 06004KT 13/M01 A3036 RMK A01 T01251009  RH  039%=      5-min Rain = 0
KEA1 142102Z 08007KT 13/M01 A3036 RMK A01 T01251009  RH  040%=      5-min Rain = 0
KEA1 142103Z 09004KT 12/M01 A3036 RMK A01 T01241011  RH  039%=      5-min Rain = 0
KEA1 142104Z 10006KT 12/M01 A3036 RMK A01 T01231011  RH  039%=      5-min Rain = 0
KEA1 142105Z 12008KT 12/M01 A3036 RMK A01 T01231011  RH  039%=      5-min Rain = 0
KEA1 142106Z 07009KT 12/M01 A3036 RMK A01 T01221013  RH  039%=      5-min Rain = 0
KEA1 142107Z 06011KT 12/M01 A3036 RMK A01 T01211012  RH  040%=      5-min Rain = 0
KEA1 142108Z 06009KT 12/M01 A3036 RMK A01 T01221012  RH  040%=      5-min Rain = 0
KEA1 142109Z 07007KT 12/M01 A3036 RMK A01 T01211013  RH  039%=      5-min Rain = 0
KEA1 142110Z 08003KT 12/M02 A3036 RMK A01 T01191015  RH  039%=      5-min Rain = 0
KEA1 142111Z 06004KT 12/M01 A3036 RMK A01 T01181013  RH  040%=      5-min Rain = 0
KEA1 142112Z 08004KT 12/M01 A3036 RMK A01 T01191012  RH  040%=      5-min Rain = 0
KEA1 142113Z 09006KT 12/M01 A3036 RMK A01 T01221012  RH  039%=      5-min Rain = 0
KEA1 142114Z 12003KT 12/M01 A3036 RMK A01 T01201014  RH  039%=      5-min Rain = 0
KEA1 142115Z 09005G10KT 12/M01 A3036 RMK A01 T01191013  RH  040%=      5-min Rain = 0
KEA1 142116Z 07007KT 12/M01 A3036 RMK A01 T01211012  RH  040%=      5-min Rain = 0
KEA1 142117Z 05009KT 12/M01 A3036 RMK A01 T01231012  RH  039%=      5-min Rain = 0
KEA1 142118Z 07007KT 12/M01 A3036 RMK A01 T01201013  RH  040%=      5-min Rain = 0
KEA1 142119Z 08005KT 12/M01 A3036 RMK A01 T01201013  RH  040%=      5-min Rain = 0
KEA1 142120Z 06005KT 12/M01 A3036 RMK A01 T01231012  RH  039%=      5-min Rain = 0
KEA1 142121Z 06007KT 12/M01 A3036 RMK A01 T01231013  RH  039%=      5-min Rain = 0
KEA1 142122Z 08006KT 12/M01 A3036 RMK A01 T01231013  RH  039%=      5-min Rain = 0
KEA1 142123Z 07008KT 12/M01 A3036 RMK A01 T01231013  RH  039%=      5-min Rain = 0
KEA1 142124Z 07009KT 12/M01 A3036 RMK A01 T01241013  RH  039%=      5-min Rain = 0
KEA1 142125Z 07008KT 12/M02 A3036 RMK A01 T01221015  RH  039%=      5-min Rain = 0
KEA1 142126Z 08007KT 12/M01 A3036 RMK A01 T01211014  RH  039%=      5-min Rain = 0
KEA1 142127Z 09006KT 12/M01 A3036 RMK A01 T01211014  RH  039%=      5-min Rain = 0
KEA1 142128Z 10006KT 12/M02 A3036 RMK A01 T01201015  RH  039%=      5-min Rain = 0
KEA1 142129Z 08008KT 12/M01 A3036 RMK A01 T01201014  RH  039%=      5-min Rain = 0
KEA1 142130Z 08008KT 12/M01 A3036 RMK A01 T01221014  RH  039%=      5-min Rain = 0
KEA1 142131Z 08005KT 12/M02 A3036 RMK A01 T01191016  RH  039%=      5-min Rain = 0
KEA1 142132Z 09004KT 12/M02 A3036 RMK A01 T01171016  RH  040%=      5-min Rain = 0
KEA1 142133Z 06003KT 12/M02 A3036 RMK A01 T01171015  RH  040%=      5-min Rain = 0
KEA1 142134Z 05006KT 12/M01 A3036 RMK A01 T01191013  RH  040%=      5-min Rain = 0
KEA1 142135Z 03003KT 12/M02 A3036 RMK A01 T01201015  RH  039%=      5-min Rain = 0
KEA1 142136Z 06003KT 12/M01 A3036 RMK A01 T01211014  RH  039%=      5-min Rain = 0
KEA1 142137Z 07004KT 12/M01 A3036 RMK A01 T01221014  RH  039%=      5-min Rain = 0
KEA1 142138Z 06005KT 12/M01 A3036 RMK A01 T01231014  RH  039%=      5-min Rain = 0
KEA1 142139Z 05003KT 12/M02 A3036 RMK A01 T01211015  RH  039%=      5-min Rain = 0
KEA1 142140Z 07009KT 12/M01 A3036 RMK A01 T01201014  RH  039%=      5-min Rain = 0
KEA1 142141Z 07009KT 12/M01 A3036 RMK A01 T01201014  RH  039%=      5-min Rain = 0
KEA1 142142Z 06005KT 12/M02 A3036 RMK A01 T01201015  RH  039%=      5-min Rain = 0
KEA1 142143Z 09006KT 12/M01 A3036 RMK A01 T01201014  RH  040%=      5-min Rain = 0
KEA1 142144Z 07008KT 12/M01 A3036 RMK A01 T01211014  RH  039%=      5-min Rain = 0
KEA1 142145Z 08006KT 12/M01 A3036 RMK A01 T01211014  RH  039%=      5-min Rain = 0
KEA1 142146Z 09006KT 12/M02 A3036 RMK A01 T01211015  RH  039%=      5-min Rain = 0
KEA1 142147Z 08007KT 12/M02 A3036 RMK A01 T01211015  RH  039%=      5-min Rain = 0
KEA1 142148Z 07008KT 12/M02 A3036 RMK A01 T01211015  RH  039%=      5-min Rain = 0
KEA1 142149Z 07006KT 12/M02 A3036 RMK A01 T01201016  RH  039%=      5-min Rain = 0
KEA1 142150Z 06008KT 12/M02 A3036 RMK A01 T01201016  RH  039%=      5-min Rain = 0
KEA1 142151Z 06009KT 12/M02 A3036 RMK A01 T01191016  RH  039%=      5-min Rain = 0
KEA1 142152Z 06006KT 12/M02 A3036 RMK A01 T01181016  RH  039%=      5-min Rain = 0
KEA1 142153Z 06005KT 12/M02 A3036 RMK A01 T01171017  RH  039%=      5-min Rain = 0
KEA1 142154Z 06005KT 12/M02 A3036 RMK A01 T01171016  RH  040%=      5-min Rain = 0
KEA1 142155Z 08005KT 12/M02 A3036 RMK A01 T01181015  RH  040%=      5-min Rain = 0
KEA1 142156Z 10004KT 12/M02 A3036 RMK A01 T01191016  RH  039%=      5-min Rain = 0
KEA1 142157Z 10004KT 12/M02 A3036 RMK A01 T01191015  RH  039%=      5-min Rain = 0
KEA1 142158Z 08003KT 12/M02 A3036 RMK A01 T01191015  RH  039%=      5-min Rain = 0
KEA1 142159Z 04004KT 12/M01 A3036 RMK A01 T01211014  RH  039%=      5-min Rain = 0
KEA1 142200Z 03005KT 12/M01 A3036 RMK A01 T01221014  RH  039%=      5-min Rain = 0
KEA1 142201Z 04004KT 12/M01 A3036 RMK A01 T01231014  RH  038%=      5-min Rain = 0
KEA1 142202Z 06003KT 12/M01 A3036 RMK A01 T01231014  RH  039%=      5-min Rain = 0
KEA1 142203Z 08004KT 12/M01 A3036 RMK A01 T01221014  RH  039%=      5-min Rain = 0
KEA1 142204Z 10003KT 12/M02 A3036 RMK A01 T01221015  RH  039%=      5-min Rain = 0
KEA1 142205Z 10003KT 12/M02 A3036 RMK A01 T01201016  RH  039%=      5-min Rain = 0
KEA1 142206Z 08003KT 12/M02 A3036 RMK A01 T01191015  RH  039%=      5-min Rain = 0
KEA1 142207Z 10002KT 12/M02 A3036 RMK A01 T01181016  RH  039%=      5-min Rain = 0
KEA1 142208Z 12006KT 12/M02 A3036 RMK A01 T01191015  RH  039%=      5-min Rain = 0
KEA1 142209Z 12006KT 12/M02 A3036 RMK A01 T01211016  RH  039%=      5-min Rain = 0
KEA1 142210Z 13004KT 12/M02 A3036 RMK A01 T01211016  RH  039%=      5-min Rain = 0
KEA1 142211Z 13004KT 12/M02 A3036 RMK A01 T01211016  RH  039%=      5-min Rain = 0
KEA1 142212Z 14003KT 12/M02 A3036 RMK A01 T01211016  RH  039%=      5-min Rain = 0
KEA1 142213Z 12001KT 12/M02 A3036 RMK A01 T01201016  RH  039%=      5-min Rain = 0
KEA1 142214Z 09002KT 12/M02 A3036 RMK A01 T01211015  RH  039%=      5-min Rain = 0
KEA1 142215Z 06006KT 12/M02 A3036 RMK A01 T01211016  RH  039%=      5-min Rain = 0
KEA1 142216Z 06006KT 12/M02 A3036 RMK A01 T01211015  RH  039%=      5-min Rain = 0
KEA1 142217Z 06007KT 12/M02 A3036 RMK A01 T01211015  RH  039%=      5-min Rain = 0
KEA1 142218Z 06005KT 12/M02 A3036 RMK A01 T01201016  RH  039%=      5-min Rain = 0
KEA1 142219Z 07005KT 12/M02 A3036 RMK A01 T01191015  RH  039%=      5-min Rain = 0
KEA1 142220Z 07004KT 12/M02 A3036 RMK A01 T01191016  RH  039%=      5-min Rain = 0
KEA1 142221Z 05005KT 12/M02 A3036 RMK A01 T01191016  RH  039%=      5-min Rain = 0
KEA1 142222Z 06004KT 12/M02 A3036 RMK A01 T01191015  RH  039%=      5-min Rain = 0
KEA1 142223Z 09004KT 12/M02 A3036 RMK A01 T01201015  RH  039%=      5-min Rain = 0
KEA1 142224Z 06006KT 12/M02 A3036 RMK A01 T01211016  RH  039%=      5-min Rain = 0
KEA1 142225Z 06003KT 12/M02 A3036 RMK A01 T01191018  RH  039%=      5-min Rain = 0
KEA1 142226Z 08003KT 12/M02 A3036 RMK A01 T01171018  RH  039%=      5-min Rain = 0
KEA1 142227Z 09005KT 12/M02 A3036 RMK A01 T01171018  RH  039%=      5-min Rain = 0
KEA1 142228Z 09005KT 12/M02 A3036 RMK A01 T01181018  RH  039%=      5-min Rain = 0
KEA1 142229Z 09006KT 12/M02 A3036 RMK A01 T01181019  RH  039%=      5-min Rain = 0
KEA1 142230Z 09004KT 12/M02 A3036 RMK A01 T01181019  RH  039%=      5-min Rain = 0
KEA1 142231Z 08004KT 12/M02 A3036 RMK A01 T01171019  RH  039%=      5-min Rain = 0
KEA1 142232Z 09004KT 12/M02 A3036 RMK A01 T01171019  RH  039%=      5-min Rain = 0
KEA1 142233Z 09003KT 12/M02 A3036 RMK A01 T01161019  RH  039%=      5-min Rain = 0
KEA1 142234Z 09003KT 12/M02 A3036 RMK A01 T01171019  RH  039%=      5-min Rain = 0
KEA1 142235Z 10004KT 12/M02 A3036 RMK A01 T01161019  RH  039%=      5-min Rain = 0
KEA1 142236Z 07006KT 12/M02 A3036 RMK A01 T01161019  RH  039%=      5-min Rain = 0
KEA1 142237Z 06006KT 12/M02 A3036 RMK A01 T01171018  RH  039%=      5-min Rain = 0
KEA1 142238Z 07006KT 12/M02 A3036 RMK A01 T01181018  RH  039%=      5-min Rain = 0
KEA1 142239Z 07007KT 12/M02 A3036 RMK A01 T01181019  RH  038%=      5-min Rain = 0
KEA1 142240Z 07007KT 12/M02 A3036 RMK A01 T01171019  RH  039%=      5-min Rain = 0
KEA1 142241Z 07005KT 12/M02 A3036 RMK A01 T01161020  RH  039%=      5-min Rain = 0
KEA1 142242Z 05004KT 12/M02 A3036 RMK A01 T01151020  RH  039%=      5-min Rain = 0
KEA1 142243Z 08005KT 12/M02 A3036 RMK A01 T01151019  RH  039%=      5-min Rain = 0
KEA1 142244Z 07005KT 12/M02 A3036 RMK A01 T01151019  RH  039%=      5-min Rain = 0
KEA1 142245Z 07005KT 12/M02 A3036 RMK A01 T01151019  RH  039%=      5-min Rain = 0
KEA1 142246Z 08003KT 12/M02 A3036 RMK A01 T01151018  RH  039%=      5-min Rain = 0
KEA1 142247Z 06002KT 12/M02 A3036 RMK A01 T01151018  RH  040%=      5-min Rain = 0
KEA1 142248Z 05002KT 12/M02 A3036 RMK A01 T01151019  RH  039%=      5-min Rain = 0
KEA1 142249Z 06004KT 12/M02 A3036 RMK A01 T01151019  RH  039%=      5-min Rain = 0
KEA1 142250Z 07005KT 11/M02 A3036 RMK A01 T01141019  RH  039%=      5-min Rain = 0
KEA1 142251Z 08003KT 12/M02 A3036 RMK A01 T01151018  RH  039%=      5-min Rain = 0
KEA1 142252Z 07004KT 12/M02 A3036 RMK A01 T01151018  RH  039%=      5-min Rain = 0
KEA1 142253Z 07003KT 12/M02 A3036 RMK A01 T01151018  RH  039%=      5-min Rain = 0
KEA1 142254Z 08005KT 11/M02 A3036 RMK A01 T01141018  RH  040%=      5-min Rain = 0
KEA1 142255Z 08004KT 11/M02 A3036 RMK A01 T01141018  RH  040%=      5-min Rain = 0
KEA1 142256Z 07004KT 11/M02 A3036 RMK A01 T01141018  RH  040%=      5-min Rain = 0
KEA1 142257Z 07004KT 11/M02 A3036 RMK A01 T01131018  RH  040%=      5-min Rain = 0
KEA1 142258Z 07003KT 11/M02 A3036 RMK A01 T01131018  RH  040%=      5-min Rain = 0
KEA1 142259Z 06005KT 11/M02 A3036 RMK A01 T01131018  RH  040%=      5-min Rain = 0
KEA1 142300Z 06005KT 11/M02 A3036 RMK A01 T01131018  RH  040%=      5-min Rain = 0
KEA1 142301Z 06005KT 11/M02 A3037 RMK A01 T01131017  RH  040%=      5-min Rain = 0
KEA1 142302Z 06005KT 11/M02 A3037 RMK A01 T01121018  RH  040%=      5-min Rain = 0
KEA1 142303Z 07005KT 11/M02 A3037 RMK A01 T01121018  RH  040%=      5-min Rain = 0
KEA1 142304Z 07006KT 11/M02 A3037 RMK A01 T01121018  RH  040%=      5-min Rain = 0
KEA1 142305Z 07007KT 11/M02 A3037 RMK A01 T01111020  RH  040%=      5-min Rain = 0
KEA1 142306Z 06006KT 11/M02 A3037 RMK A01 T01111020  RH  040%=      5-min Rain = 0
KEA1 142307Z 06006KT 11/M02 A3037 RMK A01 T01101020  RH  040%=      5-min Rain = 0
KEA1 142308Z 06006KT 11/M02 A3037 RMK A01 T01101019  RH  041%=      5-min Rain = 0
KEA1 142309Z 06006KT 11/M02 A3037 RMK A01 T01101020  RH  040%=      5-min Rain = 0
KEA1 142310Z 06005KT 11/M02 A3037 RMK A01 T01091020  RH  040%=      5-min Rain = 0
KEA1 142311Z 07005KT 11/M02 A3037 RMK A01 T01091020  RH  040%=      5-min Rain = 0
KEA1 142312Z 07004KT 11/M02 A3037 RMK A01 T01091020  RH  041%=      5-min Rain = 0
KEA1 142313Z 07004KT 11/M02 A3037 RMK A01 T01081020  RH  041%=      5-min Rain = 0
KEA1 142314Z 07005KT 11/M02 A3037 RMK A01 T01081020  RH  041%=      5-min Rain = 0
KEA1 142315Z 07005KT 11/M02 A3037 RMK A01 T01071020  RH  041%=      5-min Rain = 0
KEA1 142316Z 07004KT 11/M02 A3037 RMK A01 T01071020  RH  041%=      5-min Rain = 0
KEA1 142317Z 07004KT 11/M02 A3037 RMK A01 T01071020  RH  041%=      5-min Rain = 0
KEA1 142318Z 08004KT 11/M02 A3037 RMK A01 T01061020  RH  041%=      5-min Rain = 0
KEA1 142319Z 08004KT 11/M02 A3037 RMK A01 T01061020  RH  041%=      5-min Rain = 0
KEA1 142320Z 08005KT 11/M02 A3037 RMK A01 T01051021  RH  041%=      5-min Rain = 0
KEA1 142321Z 07005KT 11/M02 A3037 RMK A01 T01051021  RH  041%=      5-min Rain = 0
KEA1 142322Z 07006KT 10/M02 A3037 RMK A01 T01041021  RH  042%=      5-min Rain = 0
KEA1 142323Z 07005KT 10/M02 A3037 RMK A01 T01041021  RH  042%=      5-min Rain = 0
KEA1 142324Z 07005KT 10/M02 A3037 RMK A01 T01031021  RH  042%=      5-min Rain = 0
KEA1 142325Z 07005KT 10/M02 A3037 RMK A01 T01031021  RH  042%=      5-min Rain = 0
KEA1 142326Z 06004KT 10/M02 A3037 RMK A01 T01021021  RH  042%=      5-min Rain = 0
KEA1 142327Z 07004KT 10/M02 A3037 RMK A01 T01021021  RH  042%=      5-min Rain = 0
KEA1 142328Z 07004KT 10/M02 A3037 RMK A01 T01021021  RH  042%=      5-min Rain = 0
KEA1 142329Z 07004KT 10/M02 A3037 RMK A01 T01011022  RH  042%=      5-min Rain = 0
KEA1 142330Z 07004KT 10/M02 A3037 RMK A01 T01001021  RH  043%=      5-min Rain = 0
KEA1 142331Z 07005KT 10/M02 A3037 RMK A01 T00991022  RH  043%=      5-min Rain = 0
KEA1 142332Z 08005KT 10/M02 A3037 RMK A01 T00991022  RH  043%=      5-min Rain = 0
KEA1 142333Z 08005KT 10/M02 A3037 RMK A01 T00971022  RH  043%=      5-min Rain = 0
KEA1 142334Z 07006KT 10/M02 A3037 RMK A01 T00961023  RH  043%=      5-min Rain = 0
KEA1 142335Z 07006KT 10/M02 A3037 RMK A01 T00951023  RH  043%=      5-min Rain = 0
KEA1 142336Z 07006KT 09/M02 A3037 RMK A01 T00941023  RH  044%=      5-min Rain = 0
KEA1 142337Z 07006KT 09/M02 A3037 RMK A01 T00931023  RH  044%=      5-min Rain = 0
KEA1 142338Z 07006KT 09/M02 A3037 RMK A01 T00921023  RH  044%=      5-min Rain = 0
KEA1 142339Z 07006KT 09/M02 A3037 RMK A01 T00921023  RH  045%=      5-min Rain = 0
KEA1 142340Z 07006KT 09/M02 A3037 RMK A01 T00911022  RH  045%=      5-min Rain = 0
KEA1 142341Z 07006KT 09/M02 A3037 RMK A01 T00901022  RH  045%=      5-min Rain = 0
KEA1 142342Z 07006KT 09/M02 A3037 RMK A01 T00891022  RH  046%=      5-min Rain = 0
KEA1 142343Z 07006KT 09/M02 A3037 RMK A01 T00891022  RH  046%=      5-min Rain = 0
KEA1 142344Z 07006KT 09/M02 A3037 RMK A01 T00881021  RH  046%=      5-min Rain = 0
KEA1 142345Z 07006KT 09/M02 A3037 RMK A01 T00881022  RH  046%=      5-min Rain = 0
KEA1 142346Z 07006KT 09/M02 A3037 RMK A01 T00871022  RH  046%=      5-min Rain = 0
KEA1 142347Z 07006KT 09/M02 A3037 RMK A01 T00871022  RH  046%=      5-min Rain = 0
KEA1 142348Z 07006KT 09/M02 A3037 RMK A01 T00871022  RH  046%=      5-min Rain = 0
KEA1 142349Z 07006KT 09/M02 A3037 RMK A01 T00861022  RH  047%=      5-min Rain = 0
KEA1 142350Z 07006KT 09/M02 A3038 RMK A01 T00851022  RH  047%=      5-min Rain = 0
KEA1 142351Z 07006KT 08/M02 A3038 RMK A01 T00841022  RH  047%=      5-min Rain = 0
KEA1 142352Z 07007KT 08/M02 A3038 RMK A01 T00831022  RH  047%=      5-min Rain = 0
KEA1 142353Z 07006KT 08/M02 A3038 RMK A01 T00821023  RH  048%=      5-min Rain = 0
KEA1 142354Z 07007KT 08/M02 A3038 RMK A01 T00811023  RH  048%=      5-min Rain = 0
KEA1 142355Z 07006KT 08/M02 A3038 RMK A01 T00801023  RH  048%=      5-min Rain = 0
KEA1 142356Z 07006KT 08/M02 A3038 RMK A01 T00791023  RH  048%=      5-min Rain = 0
KEA1 142357Z 07006KT 08/M02 A3038 RMK A01 T00791023  RH  049%=      5-min Rain = 0
KEA1 142358Z 07006KT 08/M02 A3038 RMK A01 T00791023  RH  049%=      5-min Rain = 0
KEA1 142359Z 07006KT 08/M02 A3038 RMK A01 T00791022  RH  049%=      5-min Rain = 0
KEA1 150000Z 07006KT 08/M02 A3038 RMK A01 T00791022  RH  049%=      5-min Rain = 0
KEA1 150001Z 07006KT 08/M02 A3038 RMK A01 T00791022  RH  049%=      5-min Rain = 0
KEA1 150002Z 07006KT 08/M02 A3038 RMK A01 T00791022  RH  049%=      5-min Rain = 0
KEA1 150003Z 07006KT 08/M02 A3038 RMK A01 T00791022  RH  049%=      5-min Rain = 0
KEA1 150004Z 08005KT 08/M02 A3038 RMK A01 T00771023  RH  049%=      5-min Rain = 0
KEA1 150005Z 08006KT 08/M02 A3038 RMK A01 T00771022  RH  049%=      5-min Rain = 0
KEA1 150006Z 07005KT 08/M02 A3038 RMK A01 T00761022  RH  050%=      5-min Rain = 0
KEA1 150007Z 07005KT 08/M02 A3038 RMK A01 T00761022  RH  050%=      5-min Rain = 0
KEA1 150008Z 07005KT 08/M02 A3038 RMK A01 T00761022  RH  050%=      5-min Rain = 0
KEA1 150009Z 07005KT 08/M02 A3038 RMK A01 T00761022  RH  050%=      5-min Rain = 0
KEA1 150010Z 07005KT 08/M02 A3038 RMK A01 T00761022  RH  050%=      5-min Rain = 0
KEA1 150011Z 07005KT 08/M02 A3038 RMK A01 T00761022  RH  050%=      5-min Rain = 0
KEA1 150012Z 07005KT 08/M02 A3038 RMK A01 T00751022  RH  050%=      5-min Rain = 0
KEA1 150013Z 07006KT 08/M02 A3038 RMK A01 T00751022  RH  050%=      5-min Rain = 0
KEA1 150014Z 07006KT 08/M02 A3038 RMK A01 T00751022  RH  050%=      5-min Rain = 0
KEA1 150015Z 07006KT 07/M02 A3038 RMK A01 T00741022  RH  050%=      5-min Rain = 0
KEA1 150016Z 07006KT 07/M02 A3038 RMK A01 T00741022  RH  050%=      5-min Rain = 0
KEA1 150017Z 07006KT 07/M02 A3038 RMK A01 T00741022  RH  051%=      5-min Rain = 0
KEA1 150018Z 08005KT 07/M02 A3038 RMK A01 T00741022  RH  051%=      5-min Rain = 0
KEA1 150019Z 08005KT 07/M02 A3038 RMK A01 T00741022  RH  051%=      5-min Rain = 0
KEA1 150020Z 07005KT 07/M02 A3038 RMK A01 T00731023  RH  051%=      5-min Rain = 0
KEA1 150021Z 07005KT 07/M02 A3038 RMK A01 T00721022  RH  051%=      5-min Rain = 0
KEA1 150022Z 08005KT 07/M02 A3038 RMK A01 T00721022  RH  051%=      5-min Rain = 0
KEA1 150023Z 08004KT 07/M02 A3038 RMK A01 T00711023  RH  051%=      5-min Rain = 0
KEA1 150024Z 08004KT 07/M02 A3039 RMK A01 T00701023  RH  051%=      5-min Rain = 0
KEA1 150025Z 08003KT 07/M02 A3039 RMK A01 T00681024  RH  052%=      5-min Rain = 0
KEA1 150026Z 08003KT 07/M02 A3039 RMK A01 T00681023  RH  052%=      5-min Rain = 0
KEA1 150027Z 09003KT 07/M02 A3039 RMK A01 T00681022  RH  052%=      5-min Rain = 0
KEA1 150028Z 09003KT 07/M02 A3039 RMK A01 T00681023  RH  052%=      5-min Rain = 0
KEA1 150029Z 10003KT 07/M02 A3039 RMK A01 T00681023  RH  052%=      5-min Rain = 0
KEA1 150030Z 11003KT 07/M02 A3039 RMK A01 T00671024  RH  052%=      5-min Rain = 0
KEA1 150031Z 11003KT 07/M03 A3039 RMK A01 T00661025  RH  052%=      5-min Rain = 0
KEA1 150032Z 10003KT 07/M02 A3039 RMK A01 T00661024  RH  053%=      5-min Rain = 0
KEA1 150033Z 10003KT 07/M02 A3039 RMK A01 T00661024  RH  053%=      5-min Rain = 0
KEA1 150034Z 11003KT 07/M03 A3039 RMK A01 T00651025  RH  053%=      5-min Rain = 0
KEA1 150035Z 10003KT 07/M02 A3039 RMK A01 T00651024  RH  053%=      5-min Rain = 0
KEA1 150036Z 10003KT 07/M02 A3039 RMK A01 T00651024  RH  053%=      5-min Rain = 0
KEA1 150037Z 10004KT 07/M02 A3039 RMK A01 T00651024  RH  053%=      5-min Rain = 0
KEA1 150038Z 10004KT 07/M02 A3039 RMK A01 T00651024  RH  053%=      5-min Rain = 0
KEA1 150039Z 10004KT 06/M02 A3039 RMK A01 T00641024  RH  053%=      5-min Rain = 0
KEA1 150040Z 10004KT 06/M02 A3039 RMK A01 T00641024  RH  053%=      5-min Rain = 0
KEA1 150041Z 09004KT 07/M02 A3039 RMK A01 T00651023  RH  053%=      5-min Rain = 0
KEA1 150042Z 09003KT 07/M02 A3039 RMK A01 T00661023  RH  053%=      5-min Rain = 0
KEA1 150043Z 09003KT 07/M02 A3039 RMK A01 T00671023  RH  053%=      5-min Rain = 0
KEA1 150044Z 09003KT 07/M02 A3039 RMK A01 T00671023  RH  053%=      5-min Rain = 0
KEA1 150045Z 09003KT 07/M02 A3039 RMK A01 T00681023  RH  052%=      5-min Rain = 0
KEA1 150046Z 09003KT 07/M02 A3039 RMK A01 T00681024  RH  052%=      5-min Rain = 0
KEA1 150047Z 09003KT 07/M02 A3039 RMK A01 T00671024  RH  052%=      5-min Rain = 0
KEA1 150048Z 09003KT 07/M02 A3039 RMK A01 T00671024  RH  052%=      5-min Rain = 0
KEA1 150049Z 09003KT 07/M03 A3039 RMK A01 T00671025  RH  052%=      5-min Rain = 0
KEA1 150050Z 09003KT 07/M02 A3039 RMK A01 T00661024  RH  053%=      5-min Rain = 0
KEA1 150051Z 09004KT 07/M02 A3039 RMK A01 T00651024  RH  053%=      5-min Rain = 0
KEA1 150052Z 10004KT 07/M02 A3039 RMK A01 T00661024  RH  053%=      5-min Rain = 0
KEA1 150053Z 10004KT 07/M02 A3039 RMK A01 T00671023  RH  053%=      5-min Rain = 0
KEA1 150054Z 10003KT 07/M02 A3039 RMK A01 T00671024  RH  052%=      5-min Rain = 0
KEA1 150055Z 10004KT 07/M02 A3039 RMK A01 T00661023  RH  053%=      5-min Rain = 0
KEA1 150056Z 10004KT 07/M02 A3039 RMK A01 T00661024  RH  053%=      5-min Rain = 0
KEA1 150057Z 10004KT 07/M02 A3039 RMK A01 T00661023  RH  053%=      5-min Rain = 0
KEA1 150058Z 10004KT 07/M02 A3039 RMK A01 T00661023  RH  053%=      5-min Rain = 0
KEA1 150059Z 09004KT 07/M02 A3039 RMK A01 T00661023  RH  053%=      5-min Rain = 0
KEA1 150100Z 09004KT 07/M02 A3039 RMK A01 T00661023  RH  053%=      5-min Rain = 0
KEA1 150101Z 10004KT 07/M03 A3039 RMK A01 T00651025  RH  053%=      5-min Rain = 0
KEA1 150102Z 10004KT 06/M03 A3039 RMK A01 T00621026  RH  053%=      5-min Rain = 0
KEA1 150103Z 10004KT 06/M03 A3039 RMK A01 T00601026  RH  054%=      5-min Rain = 0
KEA1 150104Z 10004KT 06/M03 A3039 RMK A01 T00591025  RH  055%=      5-min Rain = 0
KEA1 150105Z 10004KT 06/M03 A3039 RMK A01 T00591025  RH  055%=      5-min Rain = 0
KEA1 150106Z 11004KT 06/M03 A304 RMK A01 T00591025  RH  055%=      5-min Rain = 0
KEA1 150107Z 11005KT 06/M03 A304 RMK A01 T00591025  RH  055%=      5-min Rain = 0
KEA1 150108Z 12005KT 06/M03 A304 RMK A01 T00561028  RH  055%=      5-min Rain = 0
KEA1 150109Z 13006KT 05/M03 A304 RMK A01 T00501031  RH  056%=      5-min Rain = 0
KEA1 150110Z 13006KT 04/M04 A304 RMK A01 T00441035  RH  057%=      5-min Rain = 0
KEA1 150111Z 12005KT 04/M03 A304 RMK A01 T00401033  RH  059%=      5-min Rain = 0
KEA1 150112Z 13004KT 04/M03 A304 RMK A01 T00401031  RH  060%=      5-min Rain = 0
KEA1 150113Z 13004KT 04/M03 A304 RMK A01 T00411032  RH  059%=      5-min Rain = 0
KEA1 150114Z 13005KT 04/M03 A304 RMK A01 T00401033  RH  059%=      5-min Rain = 0
KEA1 150115Z 13005KT 04/M03 A304 RMK A01 T00391033  RH  059%=      5-min Rain = 0
KEA1 150116Z 13005KT 04/M03 A304 RMK A01 T00381032  RH  060%=      5-min Rain = 0
KEA1 150117Z 13005KT 04/M03 A304 RMK A01 T00391031  RH  060%=      5-min Rain = 0
KEA1 150118Z 13005KT 04/M03 A304 RMK A01 T00401030  RH  060%=      5-min Rain = 0
KEA1 150119Z 13005KT 04/M03 A304 RMK A01 T00421030  RH  060%=      5-min Rain = 0
KEA1 150120Z 13005KT 04/M03 A304 RMK A01 T00431030  RH  059%=      5-min Rain = 0
KEA1 150121Z 13005KT 04/M03 A304 RMK A01 T00441029  RH  059%=      5-min Rain = 0
KEA1 150122Z 13005KT 04/M03 A304 RMK A01 T00441030  RH  059%=      5-min Rain = 0
KEA1 150123Z 13006KT 05/M03 A304 RMK A01 T00451029  RH  059%=      5-min Rain = 0
KEA1 150124Z 13006KT 04/M03 A304 RMK A01 T00441031  RH  058%=      5-min Rain = 0
KEA1 150125Z 14006KT 04/M03 A304 RMK A01 T00421032  RH  059%=      5-min Rain = 0
KEA1 150126Z 13006KT 04/M03 A304 RMK A01 T00401031  RH  060%=      5-min Rain = 0
KEA1 150127Z 14006KT 04/M03 A304 RMK A01 T00401031  RH  060%=      5-min Rain = 0
KEA1 150128Z 13006KT 04/M03 A304 RMK A01 T00401030  RH  060%=      5-min Rain = 0
KEA1 150129Z 14007KT 04/M03 A304 RMK A01 T00411031  RH  060%=      5-min Rain = 0
KEA1 150130Z 14007KT 04/M03 A304 RMK A01 T00391033  RH  059%=      5-min Rain = 0
KEA1 150131Z 14007KT 04/M03 A304 RMK A01 T00371033  RH  060%=      5-min Rain = 0
KEA1 150132Z 14006KT 04/M03 A304 RMK A01 T00351034  RH  060%=      5-min Rain = 0
KEA1 150133Z 14006KT 03/M04 A304 RMK A01 T00331035  RH  061%=      5-min Rain = 0
KEA1 150134Z 14006KT 03/M03 A304 RMK A01 T00321033  RH  062%=      5-min Rain = 0
KEA1 150135Z 14006KT 03/M03 A304 RMK A01 T00321034  RH  062%=      5-min Rain = 0
KEA1 150136Z 14006KT 03/M03 A304 RMK A01 T00321034  RH  062%=      5-min Rain = 0
KEA1 150137Z 14006KT 03/M03 A304 RMK A01 T00311033  RH  063%=      5-min Rain = 0
KEA1 150138Z 14006KT 03/M03 A304 RMK A01 T00311033  RH  063%=      5-min Rain = 0
KEA1 150139Z 14006KT 03/M03 A304 RMK A01 T00321032  RH  063%=      5-min Rain = 0
KEA1 150140Z 13006KT 03/M03 A304 RMK A01 T00341030  RH  063%=      5-min Rain = 0
KEA1 150141Z 13006KT 04/M03 A304 RMK A01 T00371027  RH  063%=      5-min Rain = 0
KEA1 150142Z 13006KT 04/M03 A304 RMK A01 T00401026  RH  062%=      5-min Rain = 0
KEA1 150143Z 13006KT 05/M02 A304 RMK A01 T00451024  RH  061%=      5-min Rain = 0
KEA1 150144Z 13006KT 05/M02 A304 RMK A01 T00491023  RH  060%=      5-min Rain = 0
KEA1 150145Z 13006KT 05/M02 A304 RMK A01 T00521022  RH  059%=      5-min Rain = 0
KEA1 150146Z 13006KT 06/M02 A304 RMK A01 T00551022  RH  058%=      5-min Rain = 0
KEA1 150147Z 13006KT 06/M02 A304 RMK A01 T00571023  RH  057%=      5-min Rain = 0
KEA1 150148Z 13006KT 06/M03 A304 RMK A01 T00561025  RH  056%=      5-min Rain = 0
KEA1 150149Z 14006KT 05/M03 A304 RMK A01 T00511029  RH  056%=      5-min Rain = 0
KEA1 150150Z 14006KT 05/M03 A304 RMK A01 T00471029  RH  058%=      5-min Rain = 0
KEA1 150151Z 13006KT 05/M03 A304 RMK A01 T00461027  RH  059%=      5-min Rain = 0
KEA1 150152Z 13006KT 05/M03 A304 RMK A01 T00461027  RH  059%=      5-min Rain = 0
KEA1 150153Z 13006KT 05/M03 A304 RMK A01 T00461026  RH  060%=      5-min Rain = 0
KEA1 150154Z 13006KT 05/M03 A304 RMK A01 T00481025  RH  059%=      5-min Rain = 0
KEA1 150155Z 13006KT 05/M03 A304 RMK A01 T00481025  RH  059%=      5-min Rain = 0
KEA1 150156Z 13006KT 05/M03 A304 RMK A01 T00481027  RH  058%=      5-min Rain = 0
KEA1 150157Z 13006KT 05/M03 A304 RMK A01 T00451029  RH  059%=      5-min Rain = 0
KEA1 150158Z 13006KT 04/M03 A304 RMK A01 T00431029  RH  059%=      5-min Rain = 0
KEA1 150159Z 13006KT 04/M03 A304 RMK A01 T00421029  RH  060%=      5-min Rain = 0
KEA1 150200Z 13007KT 04/M03 A304 RMK A01 T00411029  RH  060%=      5-min Rain = 0
KEA1 150201Z 13007KT 04/M03 A304 RMK A01 T00421028  RH  060%=      5-min Rain = 0
KEA1 150202Z 13007KT 04/M03 A304 RMK A01 T00421029  RH  060%=      5-min Rain = 0
KEA1 150203Z 13007KT 04/M03 A304 RMK A01 T00421028  RH  060%=      5-min Rain = 0
KEA1 150204Z 13007KT 04/M03 A304 RMK A01 T00421030  RH  060%=      5-min Rain = 0
KEA1 150205Z 13007KT 04/M03 A304 RMK A01 T00391032  RH  060%=      5-min Rain = 0
KEA1 150206Z 14007KT 04/M03 A304 RMK A01 T00361032  RH  061%=      5-min Rain = 0
KEA1 150207Z 14007KT 04/M03 A304 RMK A01 T00351033  RH  061%=      5-min Rain = 0
KEA1 150208Z 14007KT 03/M03 A304 RMK A01 T00321034  RH  062%=      5-min Rain = 0
KEA1 150209Z 14007KT 03/M03 A304 RMK A01 T00301034  RH  062%=      5-min Rain = 0
KEA1 150210Z 14007KT 03/M04 A304 RMK A01 T00291035  RH  063%=      5-min Rain = 0
KEA1 150211Z 14007KT 03/M04 A304 RMK A01 T00271036  RH  063%=      5-min Rain = 0
KEA1 150212Z 14007KT 03/M03 A304 RMK A01 T00261034  RH  064%=      5-min Rain = 0
KEA1 150213Z 14007KT 03/M03 A304 RMK A01 T00261034  RH  064%=      5-min Rain = 0
KEA1 150214Z 14007KT 03/M03 A304 RMK A01 T00261034  RH  064%=      5-min Rain = 0
KEA1 150215Z 14007KT 03/M03 A304 RMK A01 T00271034  RH  064%=      5-min Rain = 0
KEA1 150216Z 13008KT 03/M03 A304 RMK A01 T00261034  RH  064%=      5-min Rain = 0
KEA1 150217Z 14007KT 03/M03 A304 RMK A01 T00261034  RH  065%=      5-min Rain = 0
KEA1 150218Z 14007KT 03/M03 A304 RMK A01 T00261034  RH  065%=      5-min Rain = 0
KEA1 150219Z 14007KT 03/M04 A3041 RMK A01 T00251035  RH  065%=      5-min Rain = 0
KEA1 150220Z 14007KT 02/M04 A3041 RMK A01 T00241036  RH  065%=      5-min Rain = 0
KEA1 150221Z 14007KT 02/M04 A3041 RMK A01 T00221036  RH  066%=      5-min Rain = 0
KEA1 150222Z 15007KT 02/M04 A3041 RMK A01 T00211036  RH  066%=      5-min Rain = 0
KEA1 150223Z 15008KT 02/M04 A3041 RMK A01 T00211035  RH  066%=      5-min Rain = 0
KEA1 150224Z 15008KT 02/M04 A3041 RMK A01 T00211035  RH  067%=      5-min Rain = 0
KEA1 150225Z 15008KT 02/M04 A3041 RMK A01 T00191036  RH  066%=      5-min Rain = 0
KEA1 150226Z 15008KT 02/M04 A3041 RMK A01 T00191036  RH  067%=      5-min Rain = 0
KEA1 150227Z 15008KT 02/M04 A3041 RMK A01 T00181037  RH  067%=      5-min Rain = 0
KEA1 150228Z 15008KT 02/M04 A3041 RMK A01 T00171038  RH  067%=      5-min Rain = 0
KEA1 150229Z 15007KT 02/M04 A3041 RMK A01 T00161038  RH  067%=      5-min Rain = 0
KEA1 150230Z 16008KT 02/M04 A3041 RMK A01 T00151039  RH  067%=      5-min Rain = 0
KEA1 150231Z 15008KT 01/M04 A3041 RMK A01 T00131041  RH  067%=      5-min Rain = 0
KEA1 150232Z 16008KT 01/M04 A3041 RMK A01 T00111042  RH  068%=      5-min Rain = 0
KEA1 150233Z 15008KT 01/M04 A3041 RMK A01 T00091042  RH  069%=      5-min Rain = 0
KEA1 150234Z 15008KT 01/M04 A3041 RMK A01 T00091041  RH  069%=      5-min Rain = 0
KEA1 150235Z 15008KT 01/M04 A3041 RMK A01 T00091040  RH  070%=      5-min Rain = 0
KEA1 150236Z 15008KT 01/M04 A3041 RMK A01 T00091040  RH  070%=      5-min Rain = 0
KEA1 150237Z 15008KT 01/M04 A3041 RMK A01 T00091040  RH  070%=      5-min Rain = 0
KEA1 150238Z 15008KT 01/M04 A3041 RMK A01 T00081040  RH  070%=      5-min Rain = 0
KEA1 150239Z 15008KT 01/M04 A3041 RMK A01 T00081040  RH  070%=      5-min Rain = 0
KEA1 150240Z 15009KT 01/M04 A3041 RMK A01 T00081040  RH  070%=      5-min Rain = 0
KEA1 150241Z 15009KT 01/M04 A3041 RMK A01 T00081039  RH  070%=      5-min Rain = 0
KEA1 150242Z 16009KT 01/M04 A3041 RMK A01 T00091038  RH  071%=      5-min Rain = 0
KEA1 150243Z 16009KT 01/M04 A3041 RMK A01 T00101037  RH  070%=      5-min Rain = 0
KEA1 150244Z 16009KT 01/M04 A3041 RMK A01 T00121037  RH  070%=      5-min Rain = 0
KEA1 150245Z 16009KT 01/M04 A3041 RMK A01 T00131037  RH  070%=      5-min Rain = 0
KEA1 150246Z 16009KT 01/M04 A3041 RMK A01 T00131037  RH  069%=      5-min Rain = 0
KEA1 150247Z 16008KT 01/M04 A3041 RMK A01 T00131037  RH  069%=      5-min Rain = 0
KEA1 150248Z 16008KT 01/M04 A3041 RMK A01 T00141037  RH  069%=      5-min Rain = 0
KEA1 150249Z 16008KT 01/M04 A3041 RMK A01 T00141037  RH  069%=      5-min Rain = 0
KEA1 150250Z 16008KT 01/M04 A3041 RMK A01 T00141037  RH  069%=      5-min Rain = 0
KEA1 150251Z 16008KT 01/M04 A3041 RMK A01 T00141037  RH  069%=      5-min Rain = 0
KEA1 150252Z 16008KT 01/M04 A3041 RMK A01 T00141036  RH  069%=      5-min Rain = 0
KEA1 150253Z 16007KT 02/M04 A3041 RMK A01 T00151036  RH  069%=      5-min Rain = 0
KEA1 150254Z 16007KT 01/M04 A3041 RMK A01 T00141036  RH  069%=      5-min Rain = 0
KEA1 150255Z 16007KT 02/M04 A3041 RMK A01 T00151036  RH  069%=      5-min Rain = 0
KEA1 150256Z 16008KT 02/M04 A3041 RMK A01 T00151036  RH  069%=      5-min Rain = 0
KEA1 150257Z 16008KT 02/M04 A3041 RMK A01 T00151036  RH  069%=      5-min Rain = 0
KEA1 150258Z 16008KT 02/M04 A3041 RMK A01 T00151036  RH  069%=      5-min Rain = 0
KEA1 150259Z 16008KT 02/M04 A3041 RMK A01 T00151036  RH  069%=      5-min Rain = 0
KEA1 150300Z 16008KT 02/M04 A3041 RMK A01 T00151036  RH  069%=      5-min Rain = 0
KEA1 150301Z 16008KT 02/M04 A3041 RMK A01 T00151037  RH  069%=      5-min Rain = 0
KEA1 150302Z 16008KT 01/M04 A3041 RMK A01 T00141037  RH  069%=      5-min Rain = 0
KEA1 150303Z 16009KT 01/M04 A3041 RMK A01 T00131038  RH  069%=      5-min Rain = 0
KEA1 150304Z 16009KT 01/M04 A3041 RMK A01 T00121039  RH  069%=      5-min Rain = 0
KEA1 150305Z 17009KT 01/M04 A3041 RMK A01 T00111039  RH  069%=      5-min Rain = 0
KEA1 150306Z 17009KT 01/M04 A3041 RMK A01 T00111039  RH  070%=      5-min Rain = 0
KEA1 150307Z 17009KT 01/M04 A3041 RMK A01 T00111038  RH  070%=      5-min Rain = 0
KEA1 150308Z 17010KT 01/M04 A3041 RMK A01 T00111038  RH  070%=      5-min Rain = 0
KEA1 150309Z 17010KT 01/M04 A3041 RMK A01 T00111038  RH  070%=      5-min Rain = 0
KEA1 150310Z 17010KT 01/M04 A3041 RMK A01 T00121037  RH  070%=      5-min Rain = 0
KEA1 150311Z 17010KT 01/M04 A3041 RMK A01 T00121037  RH  070%=      5-min Rain = 0
KEA1 150312Z 17010KT 01/M04 A3041 RMK A01 T00121037  RH  069%=      5-min Rain = 0
KEA1 150313Z 17010KT 01/M04 A3041 RMK A01 T00131037  RH  069%=      5-min Rain = 0
KEA1 150314Z 17010KT 01/M04 A3041 RMK A01 T00141037  RH  069%=      5-min Rain = 0
KEA1 150315Z 17010KT 01/M04 A3041 RMK A01 T00141037  RH  069%=      5-min Rain = 0
KEA1 150316Z 17010KT 01/M04 A3042 RMK A01 T00131038  RH  069%=      5-min Rain = 0
KEA1 150317Z 17010KT 01/M04 A3042 RMK A01 T00121038  RH  069%=      5-min Rain = 0
KEA1 150318Z 17010KT 01/M04 A3042 RMK A01 T00111039  RH  069%=      5-min Rain = 0
KEA1 150319Z 17010KT 01/M04 A3042 RMK A01 T00101039  RH  070%=      5-min Rain = 0
KEA1 150320Z 17010KT 01/M04 A3042 RMK A01 T00101039  RH  070%=      5-min Rain = 0
KEA1 150321Z 17010KT 01/M04 A3042 RMK A01 T00091038  RH  070%=      5-min Rain = 0
KEA1 150322Z 18010KT 01/M04 A3042 RMK A01 T00091039  RH  071%=      5-min Rain = 0
KEA1 150323Z 18010KT 01/M04 A3042 RMK A01 T00091038  RH  071%=      5-min Rain = 0
KEA1 150324Z 18010KT 01/M04 A3042 RMK A01 T00081039  RH  071%=      5-min Rain = 0
KEA1 150325Z 18010KT 01/M04 A3042 RMK A01 T00081038  RH  071%=      5-min Rain = 0
KEA1 150326Z 17010KT 01/M04 A3042 RMK A01 T00081038  RH  071%=      5-min Rain = 0
KEA1 150327Z 17010KT 01/M04 A3042 RMK A01 T00091038  RH  071%=      5-min Rain = 0
KEA1 150328Z 17010KT 01/M04 A3042 RMK A01 T00081038  RH  071%=      5-min Rain = 0
KEA1 150329Z 17010KT 01/M04 A3042 RMK A01 T00081039  RH  071%=      5-min Rain = 0
KEA1 150330Z 18010KT 01/M04 A3042 RMK A01 T00081038  RH  071%=      5-min Rain = 0
KEA1 150331Z 18010KT 01/M04 A3042 RMK A01 T00081038  RH  071%=      5-min Rain = 0
KEA1 150332Z 18009KT 01/M04 A3042 RMK A01 T00081038  RH  071%=      5-min Rain = 0
KEA1 150333Z 18010KT 01/M04 A3042 RMK A01 T00081038  RH  071%=      5-min Rain = 0
KEA1 150334Z 18010KT 01/M04 A3042 RMK A01 T00081038  RH  071%=      5-min Rain = 0
KEA1 150335Z 18010KT 01/M04 A3042 RMK A01 T00081038  RH  071%=      5-min Rain = 0
KEA1 150336Z 18010KT 01/M04 A3042 RMK A01 T00071038  RH  072%=      5-min Rain = 0
KEA1 150337Z 18010KT 01/M04 A3042 RMK A01 T00061038  RH  072%=      5-min Rain = 0
KEA1 150338Z 18010KT 01/M04 A3042 RMK A01 T00061038  RH  072%=      5-min Rain = 0
KEA1 150339Z 18010KT 01/M04 A3042 RMK A01 T00071037  RH  072%=      5-min Rain = 0
KEA1 150340Z 18010KT 01/M04 A3042 RMK A01 T00071037  RH  072%=      5-min Rain = 0
KEA1 150341Z 18010KT 01/M04 A3042 RMK A01 T00071037  RH  072%=      5-min Rain = 0
KEA1 150342Z 18010KT 01/M04 A3042 RMK A01 T00081036  RH  072%=      5-min Rain = 0
KEA1 150343Z 18010KT 01/M04 A3042 RMK A01 T00091035  RH  072%=      5-min Rain = 0
KEA1 150344Z 19010KT 01/M03 A3042 RMK A01 T00101034  RH  072%=      5-min Rain = 0
KEA1 150345Z 19010KT 01/M03 A3042 RMK A01 T00121034  RH  072%=      5-min Rain = 0
KEA1 150346Z 19010KT 01/M03 A3042 RMK A01 T00121034  RH  071%=      5-min Rain = 0
KEA1 150347Z 19010KT 01/M03 A3042 RMK A01 T00131034  RH  071%=      5-min Rain = 0
KEA1 150348Z 19010KT 01/M03 A3042 RMK A01 T00121034  RH  071%=      5-min Rain = 0
KEA1 150349Z 19010KT 01/M03 A3042 RMK A01 T00121034  RH  071%=      5-min Rain = 0
KEA1 150350Z 18010KT 01/M03 A3042 RMK A01 T00111034  RH  072%=      5-min Rain = 0
KEA1 150351Z 18010KT 01/M04 A3042 RMK A01 T00111035  RH  072%=      5-min Rain = 0
KEA1 150352Z 18010KT 01/M04 A3042 RMK A01 T00091035  RH  072%=      5-min Rain = 0
KEA1 150353Z 18010KT 01/M04 A3043 RMK A01 T00081035  RH  073%=      5-min Rain = 0
KEA1 150354Z 18010KT 01/M04 A3043 RMK A01 T00081035  RH  073%=      5-min Rain = 0
KEA1 150355Z 19010KT 01/M04 A3043 RMK A01 T00071035  RH  074%=      5-min Rain = 0
KEA1 150356Z 19010KT 01/M04 A3042 RMK A01 T00071035  RH  074%=      5-min Rain = 0
KEA1 150357Z 19010KT 01/M03 A3042 RMK A01 T00071034  RH  074%=      5-min Rain = 0
KEA1 150358Z 19010KT 01/M03 A3042 RMK A01 T00081034  RH  074%=      5-min Rain = 0
KEA1 150359Z 19011KT 01/M03 A3042 RMK A01 T00081034  RH  074%=      5-min Rain = 0
KEA1 150400Z 19011KT 01/M03 A3042 RMK A01 T00091033  RH  074%=      5-min Rain = 0
KEA1 150401Z 19011KT 01/M03 A3042 RMK A01 T00101032  RH  074%=      5-min Rain = 0
KEA1 150402Z 19011KT 01/M03 A3042 RMK A01 T00111032  RH  073%=      5-min Rain = 0
KEA1 150403Z 19011KT 01/M03 A3042 RMK A01 T00131030  RH  073%=      5-min Rain = 0
KEA1 150404Z 19011KT 01/M03 A3042 RMK A01 T00141030  RH  072%=      5-min Rain = 0
KEA1 150405Z 19011KT 02/M03 A3043 RMK A01 T00151030  RH  072%=      5-min Rain = 0
KEA1 150406Z 19011KT 02/M03 A3043 RMK A01 T00151030  RH  072%=      5-min Rain = 0
KEA1 150407Z 19011KT 02/M03 A3043 RMK A01 T00161030  RH  072%=      5-min Rain = 0
KEA1 150408Z 19010KT 02/M03 A3043 RMK A01 T00151030  RH  072%=      5-min Rain = 0
KEA1 150409Z 19010KT 01/M03 A3042 RMK A01 T00141031  RH  072%=      5-min Rain = 0
KEA1 150410Z 19011KT 01/M03 A3042 RMK A01 T00141031  RH  072%=      5-min Rain = 0
KEA1 150411Z 19011KT 01/M03 A3043 RMK A01 T00131031  RH  072%=      5-min Rain = 0
KEA1 150412Z 19011KT 01/M03 A3043 RMK A01 T00121031  RH  073%=      5-min Rain = 0
KEA1 150413Z 19011KT 01/M03 A3043 RMK A01 T00121031  RH  073%=      5-min Rain = 0
KEA1 150414Z 19010KT 01/M03 A3043 RMK A01 T00131031  RH  073%=      5-min Rain = 0
KEA1 150415Z 19010KT 01/M03 A3043 RMK A01 T00131031  RH  073%=      5-min Rain = 0
KEA1 150416Z 19010KT 01/M03 A3043 RMK A01 T00131031  RH  073%=      5-min Rain = 0
KEA1 150417Z 19010KT 01/M03 A3043 RMK A01 T00131031  RH  073%=      5-min Rain = 0
KEA1 150418Z 19010KT 01/M03 A3043 RMK A01 T00121031  RH  073%=      5-min Rain = 0
KEA1 150419Z 19010KT 01/M03 A3043 RMK A01 T00111031  RH  073%=      5-min Rain = 0
KEA1 150420Z 19010KT 01/M03 A3043 RMK A01 T00111032  RH  073%=      5-min Rain = 0
KEA1 150421Z 19010KT 01/M03 A3043 RMK A01 T00101032  RH  074%=      5-min Rain = 0
KEA1 150422Z 19010KT 01/M03 A3043 RMK A01 T00101032  RH  074%=      5-min Rain = 0
KEA1 150423Z 19010KT 01/M03 A3043 RMK A01 T00101031  RH  074%=      5-min Rain = 0
KEA1 150424Z 19010KT 01/M03 A3043 RMK A01 T00091032  RH  074%=      5-min Rain = 0
KEA1 150425Z 19010KT 01/M03 A3043 RMK A01 T00091032  RH  074%=      5-min Rain = 0
KEA1 150426Z 19010KT 01/M03 A3043 RMK A01 T00091031  RH  074%=      5-min Rain = 0
KEA1 150427Z 19010KT 01/M03 A3043 RMK A01 T00101031  RH  074%=      5-min Rain = 0
KEA1 150428Z 19010KT 01/M03 A3042 RMK A01 T00101032  RH  074%=      5-min Rain = 0
KEA1 150429Z 19011KT 01/M03 A3042 RMK A01 T00101031  RH  074%=      5-min Rain = 0
KEA1 150430Z 19010KT 01/M03 A3042 RMK A01 T00101032  RH  074%=      5-min Rain = 0
KEA1 150431Z 19010KT 01/M03 A3042 RMK A01 T00101032  RH  074%=      5-min Rain = 0
KEA1 150432Z 19010KT 01/M03 A3042 RMK A01 T00101032  RH  074%=      5-min Rain = 0
KEA1 150433Z 19010KT 01/M03 A3042 RMK A01 T00101032  RH  074%=      5-min Rain = 0
KEA1 150434Z 18011KT 01/M03 A3042 RMK A01 T00101032  RH  074%=      5-min Rain = 0
KEA1 150435Z 18010KT 01/M03 A3042 RMK A01 T00101032  RH  074%=      5-min Rain = 0
KEA1 150436Z 18010KT 01/M03 A3042 RMK A01 T00101032  RH  074%=      5-min Rain = 0
KEA1 150437Z 19010KT 01/M03 A3042 RMK A01 T00101032  RH  074%=      5-min Rain = 0
KEA1 150438Z 19010KT 01/M03 A3042 RMK A01 T00091032  RH  074%=      5-min Rain = 0
KEA1 150439Z 19010KT 01/M03 A3042 RMK A01 T00091032  RH  074%=      5-min Rain = 0
KEA1 150440Z 19010KT 01/M03 A3042 RMK A01 T00091032  RH  074%=      5-min Rain = 0
KEA1 150441Z 19010KT 01/M03 A3042 RMK A01 T00101032  RH  074%=      5-min Rain = 0
KEA1 150442Z 19010KT 01/M03 A3042 RMK A01 T00101031  RH  074%=      5-min Rain = 0
KEA1 150443Z 19011KT 01/M03 A3042 RMK A01 T00101031  RH  074%=      5-min Rain = 0
KEA1 150444Z 19011KT 01/M03 A3042 RMK A01 T00091032  RH  074%=      5-min Rain = 0
KEA1 150445Z 19010KT 01/M03 A3042 RMK A01 T00101031  RH  074%=      5-min Rain = 0
KEA1 150446Z 19010KT 01/M03 A3042 RMK A01 T00101031  RH  074%=      5-min Rain = 0
KEA1 150447Z 19010KT 01/M03 A3042 RMK A01 T00101031  RH  074%=      5-min Rain = 0
KEA1 150448Z 19010KT 01/M03 A3042 RMK A01 T00101031  RH  074%=      5-min Rain = 0
KEA1 150449Z 19010KT 01/M03 A3042 RMK A01 T00091032  RH  074%=      5-min Rain = 0
KEA1 150450Z 19010KT 01/M03 A3042 RMK A01 T00081032  RH  074%=      5-min Rain = 0
KEA1 150451Z 19010KT 01/M03 A3042 RMK A01 T00081032  RH  075%=      5-min Rain = 0
KEA1 150452Z 19010KT 01/M03 A3042 RMK A01 T00081032  RH  075%=      5-min Rain = 0
KEA1 150453Z 19010KT 01/M03 A3042 RMK A01 T00081032  RH  075%=      5-min Rain = 0
KEA1 150454Z 19010KT 01/M03 A3042 RMK A01 T00081031  RH  075%=      5-min Rain = 0
KEA1 150455Z 19010KT 01/M03 A3042 RMK A01 T00081031  RH  075%=      5-min Rain = 0
KEA1 150456Z 19010KT 01/M03 A3042 RMK A01 T00081031  RH  075%=      5-min Rain = 0
KEA1 150457Z 19010KT 01/M03 A3042 RMK A01 T00081031  RH  075%=      5-min Rain = 0
KEA1 150458Z 19010KT 01/M03 A3042 RMK A01 T00081030  RH  075%=      5-min Rain = 0
KEA1 150459Z 19010KT 01/M03 A3042 RMK A01 T00091030  RH  075%=      5-min Rain = 0
KEA1 150500Z 19011KT 01/M03 A3042 RMK A01 T00091030  RH  075%=      5-min Rain = 0
KEA1 150501Z 19010KT 01/M03 A3042 RMK A01 T00091030  RH  075%=      5-min Rain = 0
KEA1 150502Z 19011KT 01/M03 A3042 RMK A01 T00091030  RH  075%=      5-min Rain = 0
KEA1 150503Z 19011KT 01/M03 A3042 RMK A01 T00101030  RH  075%=      5-min Rain = 0
KEA1 150504Z 19011KT 01/M03 A3042 RMK A01 T00101030  RH  075%=      5-min Rain = 0
KEA1 150505Z 19011KT 01/M03 A3042 RMK A01 T00111029  RH  075%=      5-min Rain = 0
KEA1 150506Z 19011KT 01/M03 A3042 RMK A01 T00111029  RH  074%=      5-min Rain = 0
KEA1 150507Z 19010KT 01/M03 A3042 RMK A01 T00111029  RH  074%=      5-min Rain = 0
KEA1 150508Z 19011KT 01/M03 A3042 RMK A01 T00131028  RH  074%=      5-min Rain = 0
KEA1 150509Z 19010KT 01/M03 A3042 RMK A01 T00131029  RH  074%=      5-min Rain = 0
KEA1 150510Z 19011KT 01/M03 A3042 RMK A01 T00131029  RH  074%=      5-min Rain = 0
KEA1 150511Z 19011KT 01/M03 A3042 RMK A01 T00141028  RH  074%=      5-min Rain = 0
KEA1 150512Z 19010KT 02/M03 A3042 RMK A01 T00151028  RH  073%=      5-min Rain = 0
KEA1 150513Z 19010KT 02/M03 A3042 RMK A01 T00151028  RH  073%=      5-min Rain = 0
KEA1 150514Z 19010KT 02/M03 A3042 RMK A01 T00151028  RH  073%=      5-min Rain = 0
KEA1 150515Z 19010KT 02/M03 A3042 RMK A01 T00151028  RH  073%=      5-min Rain = 0
KEA1 150516Z 19010KT 02/M03 A3042 RMK A01 T00161028  RH  073%=      5-min Rain = 0
KEA1 150517Z 19010KT 02/M03 A3042 RMK A01 T00161028  RH  073%=      5-min Rain = 0
KEA1 150518Z 19010KT 02/M03 A3042 RMK A01 T00151028  RH  073%=      5-min Rain = 0
KEA1 150519Z 19010KT 02/M03 A3042 RMK A01 T00151028  RH  073%=      5-min Rain = 0
KEA1 150520Z 19010KT 01/M03 A3042 RMK A01 T00141028  RH  073%=      5-min Rain = 0
KEA1 150521Z 19010KT 01/M03 A3042 RMK A01 T00141028  RH  074%=      5-min Rain = 0
KEA1 150522Z 19010KT 01/M03 A3042 RMK A01 T00141028  RH  074%=      5-min Rain = 0
KEA1 150523Z 19010KT 01/M03 A3042 RMK A01 T00141028  RH  074%=      5-min Rain = 0
KEA1 150524Z 19010KT 01/M03 A3042 RMK A01 T00141028  RH  074%=      5-min Rain = 0
KEA1 150525Z 19010KT 01/M03 A3042 RMK A01 T00141028  RH  074%=      5-min Rain = 0
KEA1 150526Z 20011KT 01/M03 A3042 RMK A01 T00131029  RH  074%=      5-min Rain = 0
KEA1 150527Z 20011KT 01/M03 A3042 RMK A01 T00131029  RH  074%=      5-min Rain = 0
KEA1 150528Z 20011KT 01/M03 A3042 RMK A01 T00131028  RH  074%=      5-min Rain = 0
KEA1 150529Z 20010KT 01/M03 A3042 RMK A01 T00131028  RH  074%=      5-min Rain = 0
KEA1 150530Z 20011KT 01/M03 A3042 RMK A01 T00131029  RH  074%=      5-min Rain = 0
KEA1 150531Z 20011KT 01/M03 A3042 RMK A01 T00131028  RH  074%=      5-min Rain = 0
KEA1 150532Z 20011KT 01/M03 A3042 RMK A01 T00131028  RH  074%=      5-min Rain = 0
KEA1 150533Z 20011KT 01/M03 A3042 RMK A01 T00131028  RH  074%=      5-min Rain = 0
KEA1 150534Z 20011KT 01/M03 A3042 RMK A01 T00141028  RH  074%=      5-min Rain = 0
KEA1 150535Z 20012KT 01/M03 A3042 RMK A01 T00141027  RH  074%=      5-min Rain = 0
KEA1 150536Z 20011KT 02/M03 A3042 RMK A01 T00151027  RH  074%=      5-min Rain = 0
KEA1 150537Z 20012KT 02/M03 A3042 RMK A01 T00151027  RH  074%=      5-min Rain = 0
KEA1 150538Z 20011KT 02/M03 A3042 RMK A01 T00161027  RH  073%=      5-min Rain = 0
KEA1 150539Z 20011KT 02/M03 A3042 RMK A01 T00161027  RH  073%=      5-min Rain = 0
KEA1 150540Z 20011KT 02/M03 A3042 RMK A01 T00161027  RH  073%=      5-min Rain = 0
KEA1 150541Z 20012KT 02/M03 A3042 RMK A01 T00151027  RH  073%=      5-min Rain = 0
KEA1 150542Z 20012KT 02/M03 A3042 RMK A01 T00161027  RH  073%=      5-min Rain = 0
KEA1 150543Z 20012KT 02/M03 A3042 RMK A01 T00151027  RH  073%=      5-min Rain = 0
KEA1 150544Z 20012KT 01/M03 A3042 RMK A01 T00141028  RH  073%=      5-min Rain = 0
KEA1 150545Z 20012KT 01/M03 A3042 RMK A01 T00141028  RH  074%=      5-min Rain = 0
KEA1 150546Z 20012KT 01/M03 A3042 RMK A01 T00141028  RH  074%=      5-min Rain = 0
KEA1 150547Z 20012KT 01/M03 A3042 RMK A01 T00141028  RH  074%=      5-min Rain = 0
KEA1 150548Z 20012KT 01/M03 A3042 RMK A01 T00141028  RH  074%=      5-min Rain = 0
KEA1 150549Z 20012KT 01/M03 A3042 RMK A01 T00141028  RH  074%=      5-min Rain = 0
KEA1 150550Z 20012KT 01/M03 A3042 RMK A01 T00141028  RH  074%=      5-min Rain = 0
KEA1 150551Z 20012KT 01/M03 A3042 RMK A01 T00141028  RH  074%=      5-min Rain = 0
KEA1 150552Z 20011KT 02/M03 A3042 RMK A01 T00151027  RH  074%=      5-min Rain = 0
KEA1 150553Z 20011KT 01/M03 A3042 RMK A01 T00141028  RH  074%=      5-min Rain = 0
KEA1 150554Z 20011KT 01/M03 A3042 RMK A01 T00141028  RH  074%=      5-min Rain = 0
KEA1 150555Z 20012KT 01/M03 A3042 RMK A01 T00131029  RH  074%=      5-min Rain = 0
KEA1 150556Z 20011KT 01/M03 A3042 RMK A01 T00121029  RH  074%=      5-min Rain = 0
KEA1 150557Z 20011KT 01/M03 A3042 RMK A01 T00111029  RH  075%=      5-min Rain = 0
KEA1 150558Z 20011KT 01/M03 A3042 RMK A01 T00101029  RH  075%=      5-min Rain = 0
KEA1 150559Z 20011KT 01/M03 A3042 RMK A01 T00101029  RH  075%=      5-min Rain = 0

Page generated in 0.1309 seconds.